DLH445 KMCO-EDDP

Flight info

Callsign DLH445
Flight time 9h 24m
Altitude 37000
Route JEEMY4 PAINN SHRKS BERTT GURGE RAYVO Q87 NOWAE FAK BOOYA Q34 RBV Q22 LLUND BIZEX Q133 CAM BEEHS JIGZY HULTN N611A SAXAN 5250N 5340N 5330N 5320N MALOT GISTI ENJEX ADHAV AXNEF ZIPWE OZZIL SAWPE L179 ICTAM M197 REDFA TACHA NORTA ADMOS T959 KOJEC
Aircraft A359/H-SDE2E3GHIJ3J4J5LM1ORWXY/LB1D1

Departure

Time 2026-04-25 11:46
Airport Orlando International Airport (KMCO)

Arrival

Time 2026-04-25 21:10
Airport Leipzig/Halle Airport (EDDP)
Time Latitude Longitude Altitude Speed Heading
2026-04-25 10:50 28.42637 -81.30319 109 ft 0 kts
2026-04-25 11:22 28.42632 -81.30317 109 ft 4 kts 33°
2026-04-25 11:23 28.42622 -81.30330 106 ft 3 kts 48°
2026-04-25 11:23 28.42608 -81.30354 107 ft 4 kts 73°
2026-04-25 11:23 28.42603 -81.30381 106 ft 1 kts 78°
2026-04-25 11:23 28.42602 -81.30386 106 ft 0 kts 78°
2026-04-25 11:26 28.42599 -81.30363 107 ft 4 kts 106°
2026-04-25 11:27 28.42580 -81.30325 107 ft 7 kts 126°
2026-04-25 11:27 28.42549 -81.30278 107 ft 8 kts 127°
2026-04-25 11:27 28.42513 -81.30227 107 ft 9 kts 128°
2026-04-25 11:27 28.42488 -81.30188 108 ft 9 kts 127°
2026-04-25 11:28 28.42414 -81.30138 108 ft 10 kts 170°
2026-04-25 11:28 28.42338 -81.30136 107 ft 12 kts 184°
2026-04-25 11:28 28.42282 -81.30193 107 ft 12 kts 256°
2026-04-25 11:28 28.42275 -81.30304 108 ft 15 kts 269°
2026-04-25 11:29 28.42272 -81.30429 107 ft 17 kts 268°
2026-04-25 11:29 28.42264 -81.30548 109 ft 15 kts 264°
2026-04-25 11:29 28.42254 -81.30666 108 ft 15 kts 265°
2026-04-25 11:29 28.42245 -81.30789 107 ft 16 kts 265°
2026-04-25 11:30 28.42237 -81.30927 106 ft 18 kts 266°
2026-04-25 11:30 28.42237 -81.31025 105 ft 13 kts 273°
2026-04-25 11:30 28.42247 -81.31118 105 ft 7 kts 279°
2026-04-25 11:30 28.42250 -81.31140 106 ft 0 kts 279°
2026-04-25 11:32 28.42252 -81.31151 106 ft 6 kts 280°
2026-04-25 11:33 28.42263 -81.31225 106 ft 11 kts 276°
2026-04-25 11:33 28.42267 -81.31312 107 ft 11 kts 271°
2026-04-25 11:33 28.42268 -81.31399 107 ft 11 kts 270°
2026-04-25 11:33 28.42268 -81.31490 108 ft 12 kts 270°
2026-04-25 11:34 28.42267 -81.31590 108 ft 14 kts 269°
2026-04-25 11:34 28.42265 -81.31706 110 ft 15 kts 270°
2026-04-25 11:34 28.42265 -81.31816 113 ft 14 kts 269°
2026-04-25 11:34 28.42265 -81.31922 114 ft 12 kts 273°
2026-04-25 11:35 28.42315 -81.31981 114 ft 11 kts 345°
2026-04-25 11:35 28.42410 -81.31987 113 ft 15 kts 359°
2026-04-25 11:35 28.42525 -81.31989 113 ft 17 kts 359°
2026-04-25 11:35 28.42646 -81.31989 113 ft 18 kts 360°
2026-04-25 11:36 28.42777 -81.31991 109 ft 20 kts 359°
2026-04-25 11:36 28.42924 -81.31993 106 ft 22 kts 359°
2026-04-25 11:36 28.43079 -81.31994 106 ft 23 kts 360°
2026-04-25 11:36 28.43239 -81.31995 105 ft 23 kts 359°
2026-04-25 11:37 28.43403 -81.31998 106 ft 23 kts 359°
2026-04-25 11:37 28.43559 -81.31999 110 ft 22 kts 360°
2026-04-25 11:37 28.43705 -81.32001 112 ft 21 kts 359°
2026-04-25 11:37 28.43848 -81.32003 113 ft 20 kts 359°
2026-04-25 11:38 28.43985 -81.32004 115 ft 20 kts 360°
2026-04-25 11:38 28.44124 -81.32005 112 ft 20 kts 359°
2026-04-25 11:38 28.44250 -81.32006 111 ft 17 kts 360°
2026-04-25 11:38 28.44371 -81.32007 110 ft 18 kts 359°
2026-04-25 11:39 28.44476 -81.32008 108 ft 12 kts 359°
2026-04-25 11:39 28.44568 -81.32010 107 ft 11 kts 359°
2026-04-25 11:39 28.44610 -81.32010 107 ft 2 kts 359°
2026-04-25 11:39 28.44623 -81.32011 106 ft 2 kts 359°
2026-04-25 11:40 28.44630 -81.32011 107 ft 0 kts 359°
2026-04-25 11:41 28.44651 -81.32011 107 ft 8 kts 359°
2026-04-25 11:41 28.44719 -81.32013 106 ft 11 kts 359°
2026-04-25 11:41 28.44796 -81.32020 105 ft 11 kts 339°
2026-04-25 11:42 28.44823 -81.32089 104 ft 8 kts 272°
2026-04-25 11:42 28.44823 -81.32104 104 ft 0 kts 270°
2026-04-25 11:43 28.44823 -81.32140 106 ft 9 kts 270°
2026-04-25 11:43 28.44820 -81.32210 104 ft 8 kts 253°
2026-04-25 11:43 28.44786 -81.32226 107 ft 5 kts 183°
2026-04-25 11:43 28.44776 -81.32226 106 ft 0 kts 181°
2026-04-25 11:45 28.44768 -81.32226 106 ft 9 kts 181°
2026-04-25 11:45 28.44484 -81.32226 109 ft 71 kts 179°
2026-04-25 11:45 28.43797 -81.32219 114 ft 125 kts 179°
2026-04-25 11:46 28.42777 -81.32208 122 ft 169 kts 179°
2026-04-25 11:46 28.41632 -81.32185 779 ft 160 kts 178°
2026-04-25 11:46 28.40491 -81.32184 1278 ft 166 kts 184°
2026-04-25 11:46 28.39319 -81.32474 1560 ft 179 kts 201°
2026-04-25 11:47 28.38174 -81.33102 1825 ft 193 kts 207°
2026-04-25 11:47 28.36917 -81.33852 2028 ft 213 kts 207°
2026-04-25 11:47 28.35549 -81.34702 2226 ft 235 kts 213°
2026-04-25 11:47 28.34306 -81.35999 2512 ft 251 kts 229°
2026-04-25 11:48 28.33176 -81.37559 3013 ft 259 kts 233°
2026-04-25 11:48 28.32419 -81.39397 3536 ft 263 kts 257°
2026-04-25 11:48 28.32110 -81.41459 4148 ft 266 kts 263°
2026-04-25 11:48 28.31880 -81.43545 4772 ft 268 kts 263°
2026-04-25 11:49 28.31669 -81.45652 5343 ft 270 kts 267°
2026-04-25 11:49 28.31976 -81.47750 5926 ft 272 kts 294°
2026-04-25 11:49 28.33079 -81.49481 6534 ft 273 kts 317°
2026-04-25 11:49 28.34548 -81.50861 6884 ft 275 kts 322°
2026-04-25 11:50 28.36081 -81.52170 6990 ft 275 kts 323°
2026-04-25 11:50 28.37601 -81.53449 6996 ft 276 kts 323°
2026-04-25 11:50 28.39297 -81.54455 6998 ft 277 kts 344°
2026-04-25 11:50 28.41190 -81.54853 7190 ft 278 kts 352°
2026-04-25 11:51 28.43129 -81.55103 7733 ft 280 kts 353°
2026-04-25 11:51 28.45073 -81.55328 8474 ft 280 kts 353°
2026-04-25 11:51 28.46360 -81.55471 8948 ft 280 kts 353°
2026-04-25 11:51 28.48311 -81.55677 9640 ft 282 kts 353°
2026-04-25 11:52 28.50922 -81.55938 10328 ft 291 kts 353°
2026-04-25 11:52 28.52319 -81.56043 10504 ft 302 kts 357°
2026-04-25 11:52 28.54470 -81.55779 10760 ft 320 kts 11°
2026-04-25 11:52 28.56648 -81.55115 11036 ft 336 kts 14°
2026-04-25 11:53 28.58940 -81.54325 11306 ft 350 kts 15°
2026-04-25 11:53 28.61317 -81.53485 11561 ft 363 kts 15°
2026-04-25 11:53 28.63778 -81.52610 11822 ft 375 kts 15°
2026-04-25 11:53 28.66291 -81.51711 12246 ft 381 kts 15°
2026-04-25 11:54 28.68802 -81.50811 12753 ft 384 kts 15°
2026-04-25 11:54 28.71362 -81.49892 13257 ft 387 kts 15°
2026-04-25 11:54 28.76555 -81.48027 14189 ft 393 kts 15°
2026-04-25 11:55 28.78289 -81.47404 14462 ft 395 kts 15°
2026-04-25 11:55 28.81824 -81.46133 15024 ft 399 kts 15°
2026-04-25 11:55 28.84453 -81.45187 15452 ft 402 kts 15°
2026-04-25 11:55 28.87135 -81.44221 15843 ft 404 kts 15°
2026-04-25 11:56 28.89823 -81.43253 15984 ft 405 kts 15°
2026-04-25 11:56 28.92493 -81.42292 15997 ft 406 kts 15°
2026-04-25 11:56 28.95227 -81.41558 15995 ft 404 kts
2026-04-25 11:56 28.98027 -81.41562 16008 ft 401 kts 353°
2026-04-25 11:57 29.00808 -81.41863 16001 ft 401 kts 352°
2026-04-25 11:57 29.03586 -81.42187 16001 ft 401 kts 352°
2026-04-25 11:57 29.06366 -81.42505 16001 ft 401 kts 353°
2026-04-25 11:57 29.09142 -81.42819 16001 ft 401 kts 353°
2026-04-25 11:58 29.11939 -81.43122 16076 ft 403 kts 353°
2026-04-25 11:58 29.14709 -81.43382 16502 ft 405 kts 354°
2026-04-25 11:58 29.17522 -81.43642 16983 ft 406 kts 353°
2026-04-25 11:58 29.20347 -81.43905 17430 ft 409 kts 353°
2026-04-25 11:59 29.23192 -81.44173 17873 ft 411 kts 353°
2026-04-25 11:59 29.26064 -81.44445 18308 ft 414 kts 353°
2026-04-25 11:59 29.28954 -81.44719 18730 ft 416 kts 353°
2026-04-25 12:00 29.34730 -81.45269 19539 ft 421 kts 353°
2026-04-25 12:00 29.37666 -81.45548 19962 ft 424 kts 353°
2026-04-25 12:00 29.43582 -81.46112 20770 ft 429 kts 353°
2026-04-25 12:01 29.46567 -81.46398 21177 ft 431 kts 353°
2026-04-25 12:01 29.49574 -81.46685 21586 ft 434 kts 353°
2026-04-25 12:01 29.52591 -81.46973 22004 ft 436 kts 353°
2026-04-25 12:01 29.55591 -81.47261 22424 ft 439 kts 353°
2026-04-25 12:02 29.61746 -81.47846 23172 ft 447 kts 354°
2026-04-25 12:02 29.64854 -81.48122 23580 ft 449 kts 354°
2026-04-25 12:02 29.67980 -81.48400 23943 ft 452 kts 354°
2026-04-25 12:03 29.71125 -81.48683 24338 ft 453 kts 354°
2026-04-25 12:03 29.74277 -81.48967 24738 ft 455 kts 354°
2026-04-25 12:03 29.77448 -81.49254 25117 ft 457 kts 354°
2026-04-25 12:03 29.80635 -81.49543 25508 ft 459 kts 354°
2026-04-25 12:04 29.83786 -81.49830 25895 ft 461 kts 354°
2026-04-25 12:04 29.86996 -81.50140 26237 ft 463 kts 353°
2026-04-25 12:04 29.90179 -81.50775 26589 ft 465 kts 345°
2026-04-25 12:04 29.93307 -81.51743 26956 ft 466 kts 343°
2026-04-25 12:05 29.96425 -81.52824 27320 ft 468 kts 342°
2026-04-25 12:05 29.99545 -81.53959 27680 ft 470 kts 342°
2026-04-25 12:05 30.02672 -81.55112 28026 ft 472 kts 342°
2026-04-25 12:05 30.05760 -81.56247 28340 ft 474 kts 342°
2026-04-25 12:06 30.08914 -81.57397 28679 ft 475 kts 342°
2026-04-25 12:06 30.12077 -81.58541 28982 ft 478 kts 342°
2026-04-25 12:06 30.15258 -81.59686 29261 ft 479 kts 343°
2026-04-25 12:06 30.18449 -81.60831 29533 ft 480 kts 343°
2026-04-25 12:07 30.21651 -81.61979 29820 ft 481 kts 343°
2026-04-25 12:07 30.24818 -81.63114 30088 ft 482 kts 343°
2026-04-25 12:07 30.28022 -81.64264 30302 ft 481 kts 343°
2026-04-25 12:07 30.31227 -81.65417 30553 ft 481 kts 343°
2026-04-25 12:08 30.34425 -81.66567 30802 ft 480 kts 343°
2026-04-25 12:08 30.37619 -81.67718 31012 ft 480 kts 343°
2026-04-25 12:08 30.40856 -81.68884 31251 ft 480 kts 343°
2026-04-25 12:08 30.43970 -81.70007 31497 ft 479 kts 343°
2026-04-25 12:09 30.47155 -81.71156 31750 ft 479 kts 343°
2026-04-25 12:09 30.50347 -81.72309 31991 ft 478 kts 343°
2026-04-25 12:09 30.53531 -81.73459 32234 ft 478 kts 343°
2026-04-25 12:09 30.56679 -81.74598 32490 ft 478 kts 343°
2026-04-25 12:10 30.59892 -81.75591 32745 ft 477 kts 349°
2026-04-25 12:10 30.63177 -81.76101 33003 ft 476 kts 356°
2026-04-25 12:10 30.66489 -81.76067 33250 ft 476 kts
2026-04-25 12:10 30.69795 -81.75765 33542 ft 475 kts
2026-04-25 12:11 30.73095 -81.75382 33796 ft 475 kts
2026-04-25 12:11 30.76343 -81.74965 34045 ft 474 kts
2026-04-25 12:11 30.79627 -81.74531 34280 ft 473 kts
2026-04-25 12:11 30.82900 -81.74101 34507 ft 472 kts
2026-04-25 12:12 30.86137 -81.73682 34742 ft 471 kts
2026-04-25 12:12 30.88334 -81.73401 34912 ft 470 kts
2026-04-25 12:12 30.92629 -81.72858 35216 ft 468 kts
2026-04-25 12:12 30.95857 -81.72452 35456 ft 466 kts
2026-04-25 12:13 30.99082 -81.72049 35707 ft 464 kts
2026-04-25 12:13 31.02289 -81.71647 35955 ft 461 kts
2026-04-25 12:13 31.05480 -81.71247 36202 ft 459 kts
2026-04-25 12:13 31.08647 -81.70850 36457 ft 456 kts
2026-04-25 12:14 31.11768 -81.70458 36698 ft 453 kts
2026-04-25 12:14 31.14894 -81.70036 36913 ft 452 kts
2026-04-25 12:14 31.21048 -81.68276 36956 ft 458 kts 14°
2026-04-25 12:15 31.27198 -81.66072 36961 ft 464 kts 15°
2026-04-25 12:15 31.33360 -81.63791 36963 ft 469 kts 15°
2026-04-25 12:16 31.39609 -81.61485 36963 ft 469 kts 15°
2026-04-25 12:16 31.45807 -81.59210 36964 ft 469 kts 15°
2026-04-25 12:17 31.52055 -81.56918 36963 ft 469 kts 15°
2026-04-25 12:17 31.58282 -81.54631 36957 ft 469 kts 15°
2026-04-25 12:18 31.64482 -81.52350 36950 ft 469 kts 15°
2026-04-25 12:18 31.70719 -81.50053 36945 ft 469 kts 15°
2026-04-25 12:19 31.80041 -81.46612 36946 ft 469 kts 15°
2026-04-25 12:20 31.86285 -81.44304 36942 ft 470 kts 15°
2026-04-25 12:20 31.92498 -81.42004 36944 ft 470 kts 15°
2026-04-25 12:21 31.98743 -81.39688 36944 ft 470 kts 15°
2026-04-25 12:21 32.04987 -81.37370 36950 ft 470 kts 15°
2026-04-25 12:22 32.11238 -81.35045 36953 ft 471 kts 15°
2026-04-25 12:22 32.17457 -81.32730 36952 ft 471 kts 15°
2026-04-25 12:23 32.23720 -81.30394 36950 ft 471 kts 15°
2026-04-25 12:23 32.29979 -81.28056 36954 ft 471 kts 15°
2026-04-25 12:24 32.36205 -81.25728 36936 ft 471 kts 15°
2026-04-25 12:24 32.42453 -81.23388 36936 ft 471 kts 15°
2026-04-25 12:25 32.47561 -81.21079 36933 ft 474 kts 24°
2026-04-25 12:25 32.53931 -81.15875 36933 ft 478 kts 36°
2026-04-25 12:26 32.59079 -81.10901 36937 ft 480 kts 37°
2026-04-25 12:26 32.64227 -81.05835 36937 ft 481 kts 37°
2026-04-25 12:27 32.69399 -81.00768 36935 ft 481 kts 37°
2026-04-25 12:27 32.74542 -80.95749 36936 ft 481 kts 37°
2026-04-25 12:28 32.79723 -80.90693 36953 ft 481 kts 37°
2026-04-25 12:28 32.84850 -80.85679 36947 ft 479 kts 37°
2026-04-25 12:29 32.90003 -80.80632 36948 ft 479 kts 37°
2026-04-25 12:29 32.95149 -80.75585 36954 ft 479 kts 37°
2026-04-25 12:30 33.00300 -80.70522 36951 ft 479 kts 37°
2026-04-25 12:30 33.05419 -80.65484 36938 ft 479 kts 37°
2026-04-25 12:31 33.10569 -80.60407 36934 ft 479 kts 37°
2026-04-25 12:31 33.15711 -80.55331 36928 ft 479 kts 37°
2026-04-25 12:32 33.20851 -80.50249 36932 ft 478 kts 37°
2026-04-25 12:32 33.25941 -80.45210 36928 ft 478 kts 37°
2026-04-25 12:33 33.31062 -80.40131 36934 ft 477 kts 37°
2026-04-25 12:33 33.36180 -80.35047 36936 ft 479 kts 38°
2026-04-25 12:34 33.41281 -80.29971 36938 ft 479 kts 38°
2026-04-25 12:34 33.46411 -80.24859 36940 ft 479 kts 38°
2026-04-25 12:35 33.51543 -80.19735 36944 ft 479 kts 38°
2026-04-25 12:35 33.56642 -80.14637 36946 ft 479 kts 38°
2026-04-25 12:36 33.61778 -80.09494 36942 ft 480 kts 38°
2026-04-25 12:36 33.67321 -80.05074 36939 ft 477 kts 27°
2026-04-25 12:37 33.73182 -80.01402 36941 ft 477 kts 25°
2026-04-25 12:37 33.79122 -79.97813 36925 ft 477 kts 25°
2026-04-25 12:38 33.85069 -79.94217 36925 ft 479 kts 25°
2026-04-25 12:38 33.90988 -79.90613 36923 ft 480 kts 25°
2026-04-25 12:39 33.96957 -79.86964 36929 ft 480 kts 25°
2026-04-25 12:39 34.01910 -79.83930 36931 ft 480 kts 25°
2026-04-25 12:40 34.07875 -79.80270 36933 ft 481 kts 25°
2026-04-25 12:40 34.13849 -79.76601 36934 ft 481 kts 25°
2026-04-25 12:41 34.19820 -79.72929 36935 ft 481 kts 25°
2026-04-25 12:41 34.25760 -79.69269 36934 ft 481 kts 25°
2026-04-25 12:42 34.31739 -79.65579 36925 ft 481 kts 25°
2026-04-25 12:42 34.37691 -79.61902 36924 ft 483 kts 25°
2026-04-25 12:43 34.43701 -79.58191 36923 ft 484 kts 25°
2026-04-25 12:43 34.52664 -79.52622 36923 ft 484 kts 25°
2026-04-25 12:44 34.58664 -79.48840 36931 ft 485 kts 26°
2026-04-25 12:45 34.67498 -79.42826 36931 ft 486 kts 27°
2026-04-25 12:45 34.76321 -79.36817 36934 ft 485 kts 27°
2026-04-25 12:46 34.82220 -79.32813 36933 ft 486 kts 26°
2026-04-25 12:46 34.88133 -79.28802 36933 ft 486 kts 26°
2026-04-25 12:47 34.94053 -79.24779 36928 ft 486 kts 26°
2026-04-25 12:47 34.99937 -79.20774 36910 ft 486 kts 26°
2026-04-25 12:48 35.05861 -79.16734 36909 ft 487 kts 26°
2026-04-25 12:48 35.11754 -79.12711 36906 ft 488 kts 26°
2026-04-25 12:49 35.17683 -79.08656 36906 ft 488 kts 26°
2026-04-25 12:49 35.23620 -79.04587 36908 ft 488 kts 26°
2026-04-25 12:50 35.29515 -79.00540 36908 ft 487 kts 26°
2026-04-25 12:50 35.35414 -78.96485 36907 ft 488 kts 26°
2026-04-25 12:51 35.41338 -78.92405 36910 ft 488 kts 26°
2026-04-25 12:51 35.47265 -78.88319 36917 ft 488 kts 26°
2026-04-25 12:52 35.53157 -78.84246 36911 ft 488 kts 26°
2026-04-25 12:52 35.59078 -78.80145 36910 ft 488 kts 26°
2026-04-25 12:53 35.64969 -78.76070 36907 ft 488 kts 26°
2026-04-25 12:53 35.70898 -78.71948 36899 ft 488 kts 26°
2026-04-25 12:54 35.76784 -78.67847 36907 ft 489 kts 26°
2026-04-25 12:54 35.82703 -78.63719 36904 ft 489 kts 26°
2026-04-25 12:55 35.87626 -78.60281 36905 ft 488 kts 26°
2026-04-25 12:55 35.94556 -78.55435 36910 ft 488 kts 26°
2026-04-25 12:56 36.00435 -78.51315 36912 ft 489 kts 26°
2026-04-25 12:56 36.06375 -78.47146 36913 ft 490 kts 26°
2026-04-25 12:57 36.12283 -78.42992 36912 ft 490 kts 26°
2026-04-25 12:57 36.18219 -78.38811 36922 ft 490 kts 26°
2026-04-25 12:58 36.24148 -78.34627 36901 ft 491 kts 26°
2026-04-25 12:58 36.30061 -78.30448 36898 ft 491 kts 26°
2026-04-25 12:59 36.36023 -78.26278 36893 ft 490 kts 22°
2026-04-25 12:59 36.42311 -78.23346 36898 ft 484 kts 13°
2026-04-25 13:00 36.47682 -78.21344 36890 ft 484 kts 12°
2026-04-25 13:00 36.55230 -78.18644 36881 ft 484 kts 12°
2026-04-25 13:01 36.61713 -78.16317 36939 ft 484 kts 12°
2026-04-25 13:01 36.68197 -78.13968 36944 ft 485 kts 12°
2026-04-25 13:02 36.74650 -78.11619 36950 ft 485 kts 12°
2026-04-25 13:02 36.81140 -78.09252 36940 ft 486 kts 12°
2026-04-25 13:03 36.87640 -78.06878 36928 ft 486 kts 12°
2026-04-25 13:03 36.94097 -78.04516 36879 ft 487 kts 11°
2026-04-25 13:04 37.00619 -78.02127 36874 ft 487 kts 11°
2026-04-25 13:04 37.07141 -77.99734 36877 ft 487 kts 12°
2026-04-25 13:05 37.13613 -77.97351 36882 ft 488 kts 11°
2026-04-25 13:05 37.20147 -77.94943 36881 ft 488 kts 11°
2026-04-25 13:06 37.26660 -77.92539 36879 ft 486 kts 11°
2026-04-25 13:06 37.33121 -77.90151 36881 ft 486 kts 11°
2026-04-25 13:07 37.39637 -77.87738 36887 ft 487 kts 11°
2026-04-25 13:07 37.46119 -77.85333 36886 ft 487 kts 11°
2026-04-25 13:08 37.52628 -77.82827 36889 ft 490 kts 15°
2026-04-25 13:08 37.58967 -77.79649 36910 ft 492 kts 17°
2026-04-25 13:09 37.65315 -77.76321 36905 ft 494 kts 17°
2026-04-25 13:09 37.71625 -77.72983 36914 ft 494 kts 17°
2026-04-25 13:10 37.77968 -77.69631 36908 ft 494 kts 17°
2026-04-25 13:10 37.84324 -77.66273 36917 ft 494 kts 17°
2026-04-25 13:11 37.90634 -77.62937 36912 ft 494 kts 17°
2026-04-25 13:11 37.97001 -77.59562 36904 ft 494 kts 17°
2026-04-25 13:12 38.03301 -77.56215 36906 ft 492 kts 17°
2026-04-25 13:12 38.08557 -77.53419 36923 ft 491 kts 17°
2026-04-25 13:13 38.15948 -77.49481 36935 ft 492 kts 17°
2026-04-25 13:13 38.22229 -77.46129 36942 ft 492 kts 17°
2026-04-25 13:14 38.28542 -77.42750 36926 ft 492 kts 17°
2026-04-25 13:14 38.34874 -77.39356 36951 ft 493 kts 17°
2026-04-25 13:15 38.40881 -77.35055 36952 ft 506 kts 32°
2026-04-25 13:15 38.45957 -77.28703 36962 ft 514 kts 42°
2026-04-25 13:16 38.50714 -77.21854 36964 ft 516 kts 43°
2026-04-25 13:16 38.55391 -77.14993 36954 ft 513 kts 43°
2026-04-25 13:17 38.60112 -77.08111 36946 ft 512 kts 43°
2026-04-25 13:17 38.64800 -77.01304 36934 ft 513 kts 43°
2026-04-25 13:18 38.69525 -76.94442 36964 ft 514 kts 43°
2026-04-25 13:18 38.74258 -76.87550 36963 ft 514 kts 43°
2026-04-25 13:19 38.78948 -76.80705 36961 ft 512 kts 43°
2026-04-25 13:19 38.82091 -76.76108 36961 ft 511 kts 43°
2026-04-25 13:20 38.88334 -76.66950 36961 ft 512 kts 43°
2026-04-25 13:20 38.93042 -76.60029 36988 ft 512 kts 43°
2026-04-25 13:21 38.97707 -76.53158 36989 ft 512 kts 43°
2026-04-25 13:21 39.02393 -76.46238 36992 ft 511 kts 43°
2026-04-25 13:22 39.07061 -76.39331 36976 ft 511 kts 43°
2026-04-25 13:23 39.14024 -76.29003 37001 ft 511 kts 43°
2026-04-25 13:23 39.18683 -76.22072 37002 ft 511 kts 43°
2026-04-25 13:24 39.23339 -76.15130 37003 ft 511 kts 43°
2026-04-25 13:24 39.27959 -76.08230 36992 ft 508 kts 43°
2026-04-25 13:25 39.32581 -76.01308 36990 ft 508 kts 43°
2026-04-25 13:25 39.37177 -75.94409 36986 ft 508 kts 43°
2026-04-25 13:26 39.41794 -75.87464 36996 ft 508 kts 43°
2026-04-25 13:26 39.46401 -75.80521 37016 ft 508 kts 43°
2026-04-25 13:27 39.50972 -75.73614 37026 ft 507 kts 43°
2026-04-25 13:27 39.55559 -75.66668 37031 ft 506 kts 43°
2026-04-25 13:28 39.59371 -75.60885 37040 ft 506 kts 43°
2026-04-25 13:28 39.64693 -75.52794 37036 ft 506 kts 43°
2026-04-25 13:29 39.68433 -75.46901 37035 ft 510 kts 46°
2026-04-25 13:29 39.72590 -75.39397 37032 ft 511 kts 49°
2026-04-25 13:30 39.78749 -75.28080 37055 ft 509 kts 47°
2026-04-25 13:31 39.84970 -75.16913 37055 ft 509 kts 47°
2026-04-25 13:31 39.89136 -75.09451 37053 ft 509 kts 47°
2026-04-25 13:32 39.93294 -75.01980 37060 ft 508 kts 47°
2026-04-25 13:32 39.97414 -74.94554 37052 ft 508 kts 47°
2026-04-25 13:33 40.01414 -74.86917 37055 ft 510 kts 50°
2026-04-25 13:33 40.05302 -74.79132 37055 ft 510 kts 50°
2026-04-25 13:34 40.09168 -74.71425 37056 ft 510 kts 50°
2026-04-25 13:34 40.13086 -74.63675 37066 ft 510 kts 50°
2026-04-25 13:35 40.17012 -74.55918 37060 ft 510 kts 50°
2026-04-25 13:35 40.21276 -74.48711 37065 ft 497 kts 37°
2026-04-25 13:36 40.26461 -74.42799 37067 ft 492 kts 32°
2026-04-25 13:36 40.31737 -74.37167 37076 ft 490 kts 32°
2026-04-25 13:37 40.37044 -74.31533 37090 ft 488 kts 32°
2026-04-25 13:37 40.42283 -74.25932 37096 ft 488 kts 32°
2026-04-25 13:38 40.47548 -74.20274 37129 ft 488 kts 32°
2026-04-25 13:38 40.52764 -74.14651 37117 ft 487 kts 32°
2026-04-25 13:39 40.58002 -74.09000 37107 ft 487 kts 32°
2026-04-25 13:39 40.63241 -74.03329 37125 ft 487 kts 32°
2026-04-25 13:40 40.68469 -73.97653 37135 ft 486 kts 32°
2026-04-25 13:40 40.73654 -73.92012 37102 ft 484 kts 32°
2026-04-25 13:41 40.78861 -73.86341 37098 ft 484 kts 32°
2026-04-25 13:41 40.84107 -73.80708 37108 ft 481 kts 28°
2026-04-25 13:42 40.89838 -73.76621 37104 ft 465 kts 14°
2026-04-25 13:42 40.95883 -73.73598 37108 ft 464 kts 13°
2026-04-25 13:43 41.01971 -73.70722 37109 ft 463 kts 13°
2026-04-25 13:43 41.08055 -73.67845 37111 ft 464 kts 13°
2026-04-25 13:44 41.14095 -73.64960 37125 ft 464 kts 13°
2026-04-25 13:44 41.20168 -73.62038 37107 ft 462 kts 13°
2026-04-25 13:45 41.26182 -73.59176 37120 ft 459 kts 11°
2026-04-25 13:45 41.32352 -73.57559 37128 ft 449 kts
2026-04-25 13:46 41.38559 -73.56639 37129 ft 448 kts 360°
2026-04-25 13:46 41.44736 -73.55828 37131 ft 447 kts 360°
2026-04-25 13:47 41.50943 -73.55012 37102 ft 447 kts 360°
2026-04-25 13:47 41.57104 -73.54183 37103 ft 447 kts
2026-04-25 13:48 41.63311 -73.53339 37098 ft 447 kts
2026-04-25 13:48 41.69506 -73.52493 37096 ft 447 kts
2026-04-25 13:49 41.75694 -73.51645 37097 ft 447 kts
2026-04-25 13:49 41.81854 -73.50802 37108 ft 447 kts
2026-04-25 13:50 41.88045 -73.49954 37104 ft 446 kts
2026-04-25 13:50 41.94197 -73.49111 37103 ft 446 kts
2026-04-25 13:51 42.00393 -73.48258 37090 ft 446 kts
2026-04-25 13:51 42.06578 -73.47405 37080 ft 446 kts
2026-04-25 13:52 42.12721 -73.46558 37079 ft 446 kts
2026-04-25 13:52 42.18910 -73.45702 37076 ft 446 kts
2026-04-25 13:53 42.25058 -73.44849 37083 ft 446 kts
2026-04-25 13:53 42.31251 -73.43988 37080 ft 446 kts
2026-04-25 13:54 42.37436 -73.43127 37081 ft 446 kts
2026-04-25 13:54 42.43587 -73.42269 37091 ft 446 kts
2026-04-25 13:55 42.49769 -73.41404 37080 ft 446 kts
2026-04-25 13:55 42.55950 -73.40539 37082 ft 446 kts
2026-04-25 13:56 42.62128 -73.39671 37114 ft 446 kts 360°
2026-04-25 13:56 42.68260 -73.38806 37097 ft 444 kts 360°
2026-04-25 13:57 42.74415 -73.37941 37103 ft 444 kts 360°
2026-04-25 13:57 42.80578 -73.37074 37108 ft 444 kts 360°
2026-04-25 13:58 42.86705 -73.36207 37099 ft 443 kts 360°
2026-04-25 13:58 42.92858 -73.35336 37092 ft 443 kts 360°
2026-04-25 13:59 42.98998 -73.34465 37091 ft 443 kts 360°
2026-04-25 13:59 43.05099 -73.33720 37096 ft 441 kts 358°
2026-04-25 14:00 43.09198 -73.33321 37096 ft 441 kts 358°
2026-04-25 14:00 43.17364 -73.32527 37110 ft 441 kts 358°
2026-04-25 14:01 43.23473 -73.31902 37113 ft 441 kts 358°
2026-04-25 14:01 43.29606 -73.31261 37110 ft 441 kts 358°
2026-04-25 14:02 43.35731 -73.30619 37112 ft 441 kts 358°
2026-04-25 14:02 43.41822 -73.29980 37133 ft 441 kts 358°
2026-04-25 14:03 43.47932 -73.29336 37113 ft 437 kts 358°
2026-04-25 14:03 43.54005 -73.28694 37116 ft 437 kts 358°
2026-04-25 14:04 43.60075 -73.28054 37114 ft 437 kts 358°
2026-04-25 14:04 43.66127 -73.27417 37117 ft 438 kts 358°
2026-04-25 14:05 43.72206 -73.26774 37115 ft 437 kts 358°
2026-04-25 14:05 43.78257 -73.26130 37118 ft 437 kts 358°
2026-04-25 14:06 43.84317 -73.25485 37088 ft 436 kts 358°
2026-04-25 14:06 43.90425 -73.24838 37119 ft 441 kts 358°
2026-04-25 14:07 43.96513 -73.23706 37127 ft 450 kts
2026-04-25 14:07 44.02362 -73.20318 37109 ft 465 kts 24°
2026-04-25 14:07 44.05007 -73.17638 37112 ft 476 kts 33°
2026-04-25 14:08 44.07357 -73.14306 37115 ft 487 kts 43°
2026-04-25 14:08 44.11390 -73.06616 37124 ft 494 kts 47°
2026-04-25 14:09 44.15207 -72.98760 37135 ft 491 kts 47°
2026-04-25 14:09 44.19034 -72.90884 37145 ft 490 kts 47°
2026-04-25 14:10 44.22888 -72.83029 37156 ft 490 kts 47°
2026-04-25 14:10 44.26723 -72.75233 37178 ft 490 kts 47°
2026-04-25 14:11 44.30581 -72.67370 37156 ft 489 kts 47°
2026-04-25 14:11 44.34423 -72.59514 37151 ft 489 kts 47°
2026-04-25 14:12 44.38228 -72.51711 37160 ft 489 kts 46°
2026-04-25 14:12 44.42061 -72.43825 37143 ft 489 kts 47°
2026-04-25 14:13 44.45889 -72.35931 37147 ft 489 kts 47°
2026-04-25 14:13 44.49062 -72.29371 37144 ft 490 kts 47°
2026-04-25 14:14 44.53502 -72.20166 37147 ft 490 kts 47°
2026-04-25 14:14 44.56675 -72.13569 37168 ft 490 kts 47°
2026-04-25 14:15 44.60496 -72.05605 37148 ft 490 kts 47°
2026-04-25 14:15 44.64278 -71.97702 37148 ft 490 kts 47°
2026-04-25 14:16 44.68080 -71.89733 37152 ft 490 kts 47°
2026-04-25 14:16 44.71873 -71.81763 37148 ft 490 kts 47°
2026-04-25 14:17 44.75657 -71.73786 37155 ft 489 kts 48°
2026-04-25 14:17 44.79417 -71.65840 37166 ft 489 kts 48°
2026-04-25 14:18 44.83188 -71.57851 37150 ft 490 kts 48°
2026-04-25 14:18 44.86962 -71.49829 37158 ft 489 kts 48°
2026-04-25 14:19 44.90696 -71.41870 37153 ft 489 kts 48°
2026-04-25 14:19 44.94450 -71.33848 37152 ft 488 kts 48°
2026-04-25 14:20 44.98190 -71.25832 37160 ft 488 kts 48°
2026-04-25 14:20 45.01902 -71.17865 37163 ft 488 kts 49°
2026-04-25 14:21 45.05653 -71.09834 37153 ft 486 kts 47°
2026-04-25 14:21 45.09633 -71.02174 37155 ft 484 kts 45°
2026-04-25 14:22 45.13693 -70.94550 37153 ft 484 kts 45°
2026-04-25 14:22 45.17756 -70.86935 37150 ft 484 kts 45°
2026-04-25 14:23 45.21793 -70.79378 37146 ft 484 kts 45°
2026-04-25 14:23 45.25875 -70.71764 37146 ft 484 kts 45°
2026-04-25 14:24 45.29984 -70.64135 37143 ft 484 kts 45°
2026-04-25 14:24 45.34090 -70.56602 37148 ft 484 kts 45°
2026-04-25 14:25 45.38244 -70.49028 37146 ft 484 kts 45°
2026-04-25 14:25 45.42368 -70.41511 37145 ft 484 kts 45°
2026-04-25 14:26 45.46517 -70.33951 37161 ft 484 kts 45°
2026-04-25 14:26 45.50711 -70.26415 37145 ft 484 kts 45°
2026-04-25 14:27 45.54894 -70.18936 37125 ft 484 kts 45°
2026-04-25 14:27 45.59098 -70.11421 37125 ft 484 kts 45°
2026-04-25 14:28 45.63335 -70.03926 37141 ft 483 kts 45°
2026-04-25 14:28 45.67617 -69.96573 37132 ft 485 kts 45°
2026-04-25 14:29 45.71957 -69.89147 37132 ft 485 kts 45°
2026-04-25 14:29 45.76287 -69.81741 37129 ft 485 kts 45°
2026-04-25 14:30 45.80638 -69.74353 37131 ft 484 kts 45°
2026-04-25 14:30 45.87180 -69.63344 37131 ft 484 kts 45°
2026-04-25 14:31 45.91560 -69.55984 37127 ft 484 kts 45°
2026-04-25 14:31 45.95920 -69.48680 37135 ft 484 kts 45°
2026-04-25 14:32 46.00327 -69.41344 37130 ft 483 kts 44°
2026-04-25 14:32 46.04465 -69.33672 37126 ft 490 kts 54°
2026-04-25 14:33 46.07068 -69.24589 37141 ft 502 kts 73°
2026-04-25 14:33 46.07701 -69.14488 37158 ft 510 kts 86°
2026-04-25 14:34 46.07435 -69.04254 37129 ft 511 kts 89°
2026-04-25 14:34 46.07060 -68.94017 37144 ft 510 kts 89°
2026-04-25 14:35 46.06765 -68.83865 37136 ft 510 kts 89°
2026-04-25 14:35 46.06513 -68.73634 37129 ft 510 kts 89°
2026-04-25 14:36 46.06266 -68.63484 37133 ft 510 kts 89°
2026-04-25 14:36 46.06006 -68.53259 37139 ft 510 kts 89°
2026-04-25 14:37 46.05736 -68.43089 37144 ft 509 kts 89°
2026-04-25 14:37 46.05453 -68.32876 37146 ft 509 kts 89°
2026-04-25 14:38 46.05163 -68.22687 37112 ft 509 kts 89°
2026-04-25 14:38 46.04866 -68.12550 37107 ft 509 kts 89°
2026-04-25 14:39 46.04558 -68.02349 37087 ft 508 kts 90°
2026-04-25 14:39 46.04313 -67.92192 37082 ft 505 kts 85°
2026-04-25 14:40 46.05509 -67.82410 37082 ft 495 kts 67°
2026-04-25 14:40 46.08605 -67.73654 37082 ft 488 kts 54°
2026-04-25 14:41 46.12531 -67.65670 37082 ft 487 kts 50°
2026-04-25 14:41 46.16556 -67.57875 37082 ft 487 kts 51°
2026-04-25 14:42 46.19242 -67.52571 37113 ft 487 kts 51°
2026-04-25 14:42 46.24454 -67.42048 37077 ft 485 kts 52°
2026-04-25 14:43 46.28365 -67.34068 37072 ft 485 kts 52°
2026-04-25 14:43 46.32264 -67.26092 37072 ft 485 kts 52°
2026-04-25 14:44 46.36156 -67.18117 37067 ft 483 kts 52°
2026-04-25 14:44 46.40002 -67.10216 37066 ft 482 kts 52°
2026-04-25 14:45 46.43860 -67.02269 37060 ft 482 kts 52°
2026-04-25 14:45 46.47717 -66.94298 37060 ft 482 kts 52°
2026-04-25 14:46 46.51541 -66.86375 37064 ft 482 kts 52°
2026-04-25 14:46 46.55390 -66.78378 37068 ft 482 kts 52°
2026-04-25 14:47 46.57957 -66.73030 37055 ft 482 kts 52°
2026-04-25 14:47 46.63067 -66.62357 37053 ft 483 kts 52°
2026-04-25 14:48 46.66877 -66.54372 37050 ft 482 kts 53°
2026-04-25 14:48 46.70706 -66.46320 37050 ft 482 kts 53°
2026-04-25 14:49 46.74509 -66.38303 37051 ft 482 kts 53°
2026-04-25 14:49 46.78325 -66.30236 37052 ft 482 kts 53°
2026-04-25 14:50 46.82109 -66.22213 37048 ft 481 kts 53°
2026-04-25 14:50 46.85902 -66.14147 37047 ft 481 kts 53°
2026-04-25 14:51 46.89695 -66.06056 37050 ft 481 kts 53°
2026-04-25 14:51 46.91578 -66.02033 37308 ft 477 kts 53°
2026-04-25 14:51 46.93420 -65.98088 37584 ft 474 kts 53°
2026-04-25 14:52 46.95278 -65.94104 37863 ft 471 kts 53°
2026-04-25 14:52 46.97130 -65.90129 38034 ft 471 kts 53°
2026-04-25 14:52 46.99590 -65.84843 38046 ft 474 kts 53°
2026-04-25 14:53 47.04583 -65.74084 38045 ft 482 kts 53°
2026-04-25 14:53 47.08350 -65.65932 38045 ft 482 kts 53°
2026-04-25 14:54 47.12111 -65.57766 38048 ft 482 kts 53°
2026-04-25 14:54 47.15845 -65.49639 38044 ft 482 kts 53°
2026-04-25 14:55 47.19595 -65.41451 38044 ft 482 kts 53°
2026-04-25 14:55 47.23336 -65.33261 38044 ft 482 kts 54°
2026-04-25 14:56 47.27071 -65.25060 38057 ft 481 kts 54°
2026-04-25 14:56 47.30779 -65.16891 38023 ft 483 kts 54°
2026-04-25 14:57 47.34512 -65.08644 38024 ft 484 kts 54°
2026-04-25 14:57 47.38250 -65.00362 38021 ft 484 kts 54°
2026-04-25 14:58 47.41349 -64.93475 38014 ft 483 kts 54°
2026-04-25 14:58 47.45649 -64.83891 38013 ft 481 kts 54°
2026-04-25 14:59 47.48734 -64.76996 38009 ft 481 kts 54°
2026-04-25 14:59 47.52422 -64.68729 38009 ft 481 kts 54°
2026-04-25 15:00 47.56078 -64.60511 38009 ft 480 kts 55°
2026-04-25 15:00 47.59742 -64.52248 38006 ft 479 kts 55°
2026-04-25 15:01 47.63392 -64.43990 38012 ft 478 kts 55°
2026-04-25 15:01 47.67031 -64.35737 37997 ft 478 kts 55°
2026-04-25 15:02 47.70664 -64.27467 37996 ft 478 kts 54°
2026-04-25 15:02 47.74261 -64.19261 37986 ft 476 kts 55°
2026-04-25 15:03 47.77867 -64.11005 37988 ft 476 kts 55°
2026-04-25 15:03 47.81459 -64.02735 37985 ft 476 kts 55°
2026-04-25 15:04 47.85051 -63.94442 37974 ft 475 kts 55°
2026-04-25 15:04 47.88611 -63.86210 37975 ft 474 kts 54°
2026-04-25 15:05 47.92186 -63.77926 37967 ft 475 kts 55°
2026-04-25 15:06 47.97539 -63.65484 37967 ft 474 kts 55°
2026-04-25 15:06 48.01092 -63.57179 37953 ft 475 kts 55°
2026-04-25 15:07 48.04624 -63.48903 37957 ft 476 kts 56°
2026-04-25 15:07 48.08182 -63.40550 37953 ft 476 kts 56°
2026-04-25 15:08 48.11735 -63.32177 37954 ft 476 kts 56°
2026-04-25 15:08 48.15268 -63.23831 37958 ft 476 kts 56°
2026-04-25 15:09 48.18806 -63.15434 37954 ft 476 kts 55°
2026-04-25 15:09 48.24096 -63.02833 37946 ft 475 kts 56°
2026-04-25 15:10 48.27597 -62.94461 37936 ft 476 kts 56°
2026-04-25 15:11 48.32879 -62.81802 37932 ft 476 kts 56°
2026-04-25 15:11 48.36374 -62.73388 37927 ft 476 kts 56°
2026-04-25 15:12 48.41620 -62.60696 37914 ft 475 kts 56°
2026-04-25 15:12 48.44525 -62.53645 37927 ft 476 kts 56°
2026-04-25 15:13 48.50331 -62.39499 37909 ft 477 kts 56°
2026-04-25 15:14 48.53798 -62.31017 37911 ft 477 kts 57°
2026-04-25 15:14 48.57282 -62.22465 37898 ft 477 kts 56°
2026-04-25 15:15 48.60759 -62.13902 37906 ft 477 kts 57°
2026-04-25 15:15 48.64228 -62.05334 37905 ft 478 kts 57°
2026-04-25 15:16 48.67681 -61.96777 37893 ft 478 kts 57°
2026-04-25 15:16 48.72870 -61.83866 37879 ft 478 kts 57°
2026-04-25 15:17 48.78025 -61.70976 37879 ft 478 kts 57°
2026-04-25 15:18 48.81472 -61.62321 37878 ft 478 kts 57°
2026-04-25 15:18 48.86602 -61.49390 37866 ft 478 kts 57°
2026-04-25 15:19 48.89474 -61.42122 37872 ft 478 kts 57°
2026-04-25 15:19 48.93449 -61.32027 37864 ft 478 kts 57°
2026-04-25 15:20 48.96868 -61.23310 37857 ft 479 kts 57°
2026-04-25 15:20 49.00258 -61.14647 37855 ft 479 kts 57°
2026-04-25 15:21 49.03665 -61.05915 37872 ft 479 kts 57°
2026-04-25 15:21 49.07061 -60.97177 37855 ft 478 kts 57°
2026-04-25 15:22 49.10447 -60.88431 37837 ft 477 kts 58°
2026-04-25 15:22 49.13816 -60.79705 37836 ft 477 kts 58°
2026-04-25 15:23 49.17174 -60.70983 37834 ft 478 kts 57°
2026-04-25 15:23 49.20539 -60.62210 37834 ft 478 kts 58°
2026-04-25 15:24 49.23896 -60.53430 37823 ft 478 kts 58°
2026-04-25 15:24 49.26664 -60.46163 37824 ft 478 kts 58°
2026-04-25 15:25 49.30575 -60.35863 37823 ft 478 kts 58°
2026-04-25 15:25 49.33890 -60.27105 37825 ft 478 kts 58°
2026-04-25 15:26 49.37219 -60.18281 37821 ft 478 kts 58°
2026-04-25 15:26 49.40540 -60.09446 37808 ft 476 kts 58°
2026-04-25 15:27 49.43850 -60.00611 37808 ft 476 kts 58°
2026-04-25 15:28 49.48782 -59.87389 37807 ft 476 kts 58°
2026-04-25 15:28 49.52078 -59.78517 37799 ft 476 kts 58°
2026-04-25 15:29 49.55344 -59.69695 37796 ft 476 kts 58°
2026-04-25 15:29 49.58625 -59.60806 37799 ft 476 kts 58°
2026-04-25 15:30 49.61898 -59.51907 37802 ft 477 kts 59°
2026-04-25 15:30 49.65159 -59.43008 37788 ft 476 kts 59°
2026-04-25 15:31 49.68397 -59.34138 37789 ft 476 kts 58°
2026-04-25 15:31 49.71643 -59.25219 37791 ft 475 kts 59°
2026-04-25 15:32 49.74861 -59.16352 37784 ft 475 kts 59°
2026-04-25 15:32 49.78096 -59.07412 37788 ft 476 kts 59°
2026-04-25 15:33 49.82947 -58.93944 37780 ft 477 kts 59°
2026-04-25 15:33 49.86153 -58.84995 37779 ft 477 kts 59°
2026-04-25 15:34 49.89366 -58.75990 37777 ft 477 kts 59°
2026-04-25 15:34 49.91517 -58.69951 37780 ft 476 kts 59°
2026-04-25 15:35 49.97359 -58.53470 37770 ft 475 kts 59°
2026-04-25 15:36 50.02112 -58.39981 37765 ft 476 kts 60°
2026-04-25 15:36 50.05290 -58.30926 37756 ft 476 kts 60°
2026-04-25 15:37 50.08454 -58.21876 37758 ft 476 kts 60°
2026-04-25 15:37 50.11588 -58.12878 37757 ft 476 kts 60°
2026-04-25 15:38 50.14750 -58.03772 37759 ft 476 kts 60°
2026-04-25 15:38 50.17895 -57.94674 37753 ft 476 kts 60°
2026-04-25 15:39 50.21018 -57.85613 37751 ft 477 kts 60°
2026-04-25 15:39 50.24159 -57.76471 37752 ft 477 kts 60°
2026-04-25 15:40 50.26243 -57.70389 37753 ft 477 kts 60°
2026-04-25 15:40 50.30407 -57.58184 37753 ft 477 kts 61°
2026-04-25 15:41 50.33522 -57.49012 37748 ft 477 kts 61°
2026-04-25 15:41 50.36629 -57.39835 37758 ft 476 kts 61°
2026-04-25 15:42 50.39706 -57.30711 37762 ft 476 kts 60°
2026-04-25 15:42 50.42806 -57.21486 37753 ft 477 kts 60°
2026-04-25 15:43 50.45896 -57.12258 37738 ft 477 kts 61°
2026-04-25 15:43 50.48952 -57.03100 37742 ft 476 kts 60°
2026-04-25 15:44 50.52022 -56.93856 37743 ft 475 kts 60°
2026-04-25 15:44 50.55077 -56.84627 37742 ft 475 kts 61°
2026-04-25 15:45 50.58106 -56.75449 37742 ft 475 kts 61°
2026-04-25 15:45 50.60143 -56.69258 37730 ft 475 kts 61°
2026-04-25 15:46 50.64184 -56.56935 37728 ft 475 kts 61°
2026-04-25 15:46 50.66697 -56.49231 37729 ft 474 kts 61°
2026-04-25 15:47 50.70194 -56.38479 37730 ft 474 kts 62°
2026-04-25 15:47 50.72691 -56.30768 37716 ft 474 kts 61°
2026-04-25 15:48 50.75681 -56.21504 37711 ft 473 kts 62°
2026-04-25 15:48 50.78666 -56.12225 37708 ft 473 kts 62°
2026-04-25 15:49 50.81628 -56.02985 37708 ft 473 kts 62°
2026-04-25 15:49 50.84601 -55.93679 37685 ft 474 kts 62°
2026-04-25 15:50 50.87557 -55.84386 37681 ft 473 kts 62°
2026-04-25 15:50 50.90507 -55.75071 37677 ft 472 kts 62°
2026-04-25 15:51 50.92957 -55.67306 37679 ft 472 kts 62°
2026-04-25 15:51 50.96368 -55.56446 37680 ft 473 kts 62°
2026-04-25 15:52 50.99292 -55.47087 37659 ft 473 kts 63°
2026-04-25 15:52 51.02220 -55.37700 37655 ft 474 kts 63°
2026-04-25 15:53 51.05140 -55.28301 37659 ft 474 kts 62°
2026-04-25 15:53 51.08036 -55.18948 37652 ft 474 kts 63°
2026-04-25 15:54 51.10941 -55.09534 37634 ft 473 kts 63°
2026-04-25 15:54 51.13834 -55.00119 37635 ft 473 kts 62°
2026-04-25 15:55 51.16728 -54.90674 37631 ft 474 kts 63°
2026-04-25 15:55 51.19597 -54.81266 37629 ft 474 kts 63°
2026-04-25 15:56 51.22476 -54.71786 37628 ft 475 kts 63°
2026-04-25 15:56 51.25357 -54.62268 37615 ft 475 kts 63°
2026-04-25 15:57 51.28204 -54.52821 37609 ft 474 kts 63°
2026-04-25 15:57 51.31058 -54.43313 37609 ft 473 kts 64°
2026-04-25 15:58 51.33898 -54.33816 37613 ft 473 kts 64°
2026-04-25 15:58 51.36736 -54.24290 37606 ft 474 kts 64°
2026-04-25 15:59 51.39558 -54.14780 37597 ft 475 kts 64°
2026-04-25 15:59 51.42388 -54.05184 37595 ft 475 kts 64°
2026-04-25 16:00 51.44257 -53.98819 37596 ft 474 kts 64°
2026-04-25 16:00 51.47906 -53.85971 37603 ft 474 kts 70°
2026-04-25 16:01 51.49707 -53.75842 37596 ft 474 kts 75°
2026-04-25 16:01 51.51275 -53.65541 37597 ft 475 kts 76°
2026-04-25 16:02 51.52800 -53.55211 37581 ft 475 kts 76°
2026-04-25 16:02 51.54328 -53.44865 37582 ft 474 kts 76°
2026-04-25 16:03 51.55845 -53.34599 37577 ft 475 kts 76°
2026-04-25 16:03 51.57473 -53.23523 37572 ft 476 kts 76°
2026-04-25 16:04 51.58984 -53.13172 37565 ft 475 kts 76°
2026-04-25 16:04 51.60482 -53.02832 37564 ft 475 kts 76°
2026-04-25 16:05 51.61971 -52.92480 37560 ft 474 kts 76°
2026-04-25 16:06 51.64179 -52.77018 37559 ft 474 kts 76°
2026-04-25 16:06 51.65649 -52.66637 37565 ft 475 kts 76°
2026-04-25 16:07 51.67101 -52.56305 37549 ft 475 kts 77°
2026-04-25 16:07 51.68555 -52.45889 37542 ft 475 kts 77°
2026-04-25 16:08 51.69996 -52.35495 37551 ft 475 kts 77°
2026-04-25 16:08 51.71418 -52.25160 37542 ft 475 kts 77°
2026-04-25 16:09 51.72841 -52.14745 37542 ft 474 kts 77°
2026-04-25 16:09 51.74254 -52.04334 37540 ft 474 kts 77°
2026-04-25 16:10 51.75658 -51.93919 37525 ft 474 kts 77°
2026-04-25 16:10 51.77045 -51.83547 37539 ft 474 kts 77°
2026-04-25 16:11 51.78434 -51.73089 37533 ft 475 kts 78°
2026-04-25 16:11 51.79804 -51.62700 37521 ft 475 kts 78°
2026-04-25 16:12 51.81174 -51.52236 37519 ft 475 kts 78°
2026-04-25 16:12 51.82533 -51.41769 37518 ft 475 kts 78°
2026-04-25 16:13 51.83886 -51.31281 37510 ft 475 kts 78°
2026-04-25 16:13 51.85220 -51.20862 37513 ft 475 kts 78°
2026-04-25 16:14 51.86569 -51.10346 37515 ft 475 kts 78°
2026-04-25 16:14 51.87679 -51.01632 37507 ft 475 kts 78°
2026-04-25 16:15 51.89214 -50.89404 37513 ft 476 kts 78°
2026-04-25 16:15 51.90300 -50.80657 37513 ft 476 kts 78°
2026-04-25 16:16 51.91596 -50.70137 37508 ft 476 kts 78°
2026-04-25 16:16 51.92883 -50.59617 37507 ft 476 kts 79°
2026-04-25 16:17 51.94153 -50.49153 37507 ft 476 kts 79°
2026-04-25 16:17 51.95421 -50.38623 37496 ft 476 kts 79°
2026-04-25 16:18 51.96684 -50.28063 37495 ft 476 kts 79°
2026-04-25 16:18 51.97929 -50.17560 37497 ft 477 kts 79°
2026-04-25 16:19 51.99171 -50.06999 37493 ft 477 kts 79°
2026-04-25 16:19 52.00071 -49.96349 37498 ft 476 kts 90°
2026-04-25 16:20 52.00478 -49.80336 37485 ft 476 kts 76°
2026-04-25 16:21 52.03199 -49.64841 37489 ft 476 kts 76°
2026-04-25 16:21 52.04760 -49.54380 37494 ft 476 kts 77°
2026-04-25 16:22 52.06257 -49.43964 37490 ft 476 kts 77°
2026-04-25 16:22 52.07728 -49.33444 37489 ft 477 kts 78°
2026-04-25 16:23 52.09185 -49.22903 37487 ft 477 kts 78°
2026-04-25 16:23 52.10634 -49.12355 37485 ft 477 kts 78°
2026-04-25 16:24 52.12070 -49.01843 37478 ft 477 kts 78°
2026-04-25 16:24 52.13505 -48.91269 37487 ft 477 kts 78°
2026-04-25 16:25 52.14918 -48.80783 37488 ft 477 kts 78°
2026-04-25 16:25 52.16331 -48.70212 37486 ft 477 kts 78°
2026-04-25 16:26 52.17732 -48.59658 37496 ft 477 kts 78°
2026-04-25 16:26 52.19130 -48.49046 37491 ft 479 kts 78°
2026-04-25 16:27 52.20520 -48.38421 37475 ft 479 kts 78°
2026-04-25 16:27 52.21895 -48.27826 37490 ft 479 kts 79°
2026-04-25 16:28 52.23267 -48.17171 37490 ft 479 kts 79°
2026-04-25 16:28 52.24628 -48.06528 37485 ft 479 kts 79°
2026-04-25 16:29 52.25973 -47.95926 37487 ft 479 kts 79°
2026-04-25 16:29 52.27316 -47.85254 37487 ft 479 kts 79°
2026-04-25 16:30 52.28651 -47.74567 37495 ft 479 kts 79°
2026-04-25 16:30 52.29968 -47.63948 37490 ft 480 kts 79°
2026-04-25 16:31 52.31286 -47.53219 37496 ft 481 kts 79°
2026-04-25 16:31 52.32588 -47.42544 37495 ft 481 kts 80°
2026-04-25 16:32 52.33889 -47.31794 37495 ft 481 kts 80°
2026-04-25 16:32 52.35177 -47.21068 37493 ft 481 kts 80°
2026-04-25 16:33 52.36459 -47.10301 37502 ft 481 kts 80°
2026-04-25 16:33 52.37721 -46.99612 37500 ft 481 kts 80°
2026-04-25 16:34 52.38982 -46.88844 37504 ft 481 kts 80°
2026-04-25 16:34 52.40231 -46.78075 37503 ft 481 kts 81°
2026-04-25 16:35 52.41476 -46.67289 37487 ft 481 kts 81°
2026-04-25 16:35 52.42704 -46.56557 37506 ft 482 kts 81°
2026-04-25 16:36 52.43930 -46.45733 37507 ft 482 kts 81°
2026-04-25 16:36 52.45144 -46.34919 37514 ft 482 kts 81°
2026-04-25 16:37 52.46342 -46.24148 37489 ft 482 kts 81°
2026-04-25 16:37 52.47536 -46.13330 37517 ft 482 kts 81°
2026-04-25 16:38 52.48716 -46.02537 37515 ft 482 kts 81°
2026-04-25 16:38 52.49891 -45.91690 37520 ft 482 kts 82°
2026-04-25 16:39 52.51057 -45.80833 37522 ft 482 kts 82°
2026-04-25 16:39 52.52213 -45.69964 37530 ft 482 kts 82°
2026-04-25 16:40 52.53351 -45.59167 37527 ft 482 kts 82°
2026-04-25 16:40 52.54490 -45.48274 37526 ft 482 kts 82°
2026-04-25 16:41 52.55608 -45.37475 37536 ft 482 kts 82°
2026-04-25 16:41 52.57279 -45.21132 37537 ft 482 kts 82°
2026-04-25 16:42 52.58381 -45.10224 37536 ft 482 kts 82°
2026-04-25 16:42 52.59464 -44.99411 37545 ft 482 kts 83°
2026-04-25 16:43 52.60545 -44.88508 37541 ft 482 kts 83°
2026-04-25 16:43 52.61617 -44.77601 37551 ft 482 kts 83°
2026-04-25 16:44 52.62678 -44.66686 37549 ft 482 kts 83°
2026-04-25 16:44 52.63723 -44.55832 37547 ft 482 kts 83°
2026-04-25 16:45 52.64765 -44.44892 37549 ft 482 kts 83°
2026-04-25 16:45 52.65796 -44.33966 37543 ft 482 kts 83°
2026-04-25 16:46 52.66811 -44.23100 37556 ft 483 kts 83°
2026-04-25 16:46 52.67490 -44.15762 37557 ft 483 kts 83°
2026-04-25 16:47 52.68828 -44.01158 37565 ft 484 kts 84°
2026-04-25 16:47 52.69816 -43.90235 37557 ft 484 kts 84°
2026-04-25 16:48 52.70802 -43.79216 37567 ft 484 kts 84°
2026-04-25 16:48 52.71771 -43.68275 37567 ft 484 kts 84°
2026-04-25 16:49 52.72736 -43.57265 37568 ft 484 kts 84°
2026-04-25 16:49 52.73690 -43.46247 37566 ft 485 kts 84°
2026-04-25 16:50 52.74629 -43.35285 37588 ft 484 kts 84°
2026-04-25 16:50 52.75564 -43.24261 37578 ft 485 kts 85°
2026-04-25 16:51 52.76489 -43.13215 37588 ft 486 kts 85°
2026-04-25 16:51 52.77097 -43.05873 37590 ft 486 kts 85°
2026-04-25 16:52 52.78309 -42.91088 37593 ft 487 kts 85°
2026-04-25 16:52 52.79206 -42.79992 37596 ft 487 kts 85°
2026-04-25 16:53 52.80529 -42.63391 37602 ft 487 kts 85°
2026-04-25 16:54 52.81400 -42.52283 37599 ft 487 kts 85°
2026-04-25 16:54 52.82262 -42.41161 37609 ft 487 kts 85°
2026-04-25 16:55 52.83109 -42.30097 37609 ft 487 kts 86°
2026-04-25 16:55 52.83950 -42.18960 37620 ft 487 kts 86°
2026-04-25 16:56 52.84780 -42.07818 37616 ft 487 kts 86°
2026-04-25 16:56 52.85597 -41.96728 37606 ft 487 kts 86°
2026-04-25 16:57 52.86408 -41.85569 37625 ft 487 kts 86°
2026-04-25 16:57 52.87208 -41.74418 37625 ft 487 kts 86°
2026-04-25 16:58 52.87998 -41.63258 37629 ft 487 kts 86°
2026-04-25 16:58 52.88770 -41.52189 37635 ft 487 kts 86°
2026-04-25 16:59 52.89539 -41.41017 37641 ft 488 kts 87°
2026-04-25 16:59 52.90297 -41.29839 37641 ft 488 kts 87°
2026-04-25 17:00 52.91046 -41.18644 37652 ft 488 kts 87°
2026-04-25 17:00 52.91783 -41.07479 37653 ft 488 kts 87°
2026-04-25 17:01 52.92504 -40.96367 37660 ft 488 kts 87°
2026-04-25 17:01 52.93221 -40.85169 37659 ft 488 kts 87°
2026-04-25 17:02 52.93809 -40.75861 37655 ft 488 kts 87°
2026-04-25 17:02 52.94508 -40.64642 37666 ft 489 kts 87°
2026-04-25 17:03 52.95196 -40.53484 37666 ft 489 kts 88°
2026-04-25 17:03 52.95876 -40.42232 37679 ft 489 kts 88°
2026-04-25 17:04 52.96543 -40.30990 37668 ft 489 kts 88°
2026-04-25 17:04 52.97199 -40.19764 37686 ft 489 kts 88°
2026-04-25 17:05 52.97842 -40.08562 37683 ft 490 kts 88°
2026-04-25 17:05 52.98752 -39.91610 37689 ft 490 kts 89°
2026-04-25 17:06 52.99186 -39.80388 37700 ft 490 kts 90°
2026-04-25 17:06 52.99603 -39.69090 37699 ft 490 kts 90°
2026-04-25 17:07 53.00031 -39.57773 37697 ft 491 kts 90°
2026-04-25 17:07 53.00459 -39.46503 37707 ft 491 kts 90°
2026-04-25 17:08 53.00881 -39.35163 37706 ft 492 kts 90°
2026-04-25 17:08 53.01291 -39.23825 37716 ft 492 kts 90°
2026-04-25 17:09 53.01690 -39.12473 37713 ft 492 kts 90°
2026-04-25 17:09 53.02076 -39.01192 37722 ft 492 kts 90°
2026-04-25 17:10 53.02453 -38.89841 37720 ft 491 kts 90°
2026-04-25 17:10 53.02820 -38.78479 37718 ft 491 kts 90°
2026-04-25 17:11 53.03174 -38.67173 37730 ft 493 kts 91°
2026-04-25 17:11 53.03519 -38.55785 37730 ft 493 kts 91°
2026-04-25 17:12 53.03854 -38.44405 37730 ft 493 kts 91°
2026-04-25 17:12 53.04178 -38.33007 37723 ft 493 kts 91°
2026-04-25 17:13 53.04440 -38.23516 37738 ft 493 kts 91°
2026-04-25 17:13 53.04793 -38.10261 37739 ft 494 kts 91°
2026-04-25 17:14 53.05085 -37.98850 37749 ft 493 kts 91°
2026-04-25 17:14 53.05364 -37.87482 37746 ft 494 kts 91°
2026-04-25 17:15 53.05635 -37.76023 37756 ft 495 kts 91°
2026-04-25 17:15 53.05893 -37.64639 37758 ft 496 kts 91°
2026-04-25 17:16 53.06143 -37.53170 37768 ft 496 kts 91°
2026-04-25 17:16 53.06381 -37.41694 37770 ft 496 kts 91°
2026-04-25 17:17 53.06609 -37.30217 37774 ft 496 kts 91°
2026-04-25 17:17 53.06825 -37.18720 37774 ft 496 kts 92°
2026-04-25 17:18 53.07030 -37.07255 37766 ft 496 kts 92°
2026-04-25 17:18 53.07223 -36.95836 37778 ft 498 kts 92°
2026-04-25 17:19 53.07406 -36.84306 37793 ft 498 kts 92°
2026-04-25 17:19 53.07580 -36.72772 37789 ft 498 kts 92°
2026-04-25 17:20 53.07742 -36.61239 37784 ft 498 kts 92°
2026-04-25 17:20 53.07892 -36.49700 37800 ft 498 kts 92°
2026-04-25 17:21 53.08031 -36.38225 37798 ft 499 kts 92°
2026-04-25 17:21 53.08159 -36.26681 37809 ft 499 kts 92°
2026-04-25 17:22 53.08257 -36.17072 37806 ft 499 kts 92°
2026-04-25 17:22 53.08382 -36.03561 37818 ft 499 kts 92°
2026-04-25 17:23 53.08477 -35.92065 37818 ft 499 kts 92°
2026-04-25 17:23 53.08560 -35.80508 37821 ft 500 kts 92°
2026-04-25 17:24 53.08633 -35.68915 37821 ft 500 kts 92°
2026-04-25 17:24 53.08695 -35.57325 37830 ft 501 kts 92°
2026-04-25 17:25 53.08745 -35.45726 37830 ft 500 kts 92°
2026-04-25 17:25 53.08784 -35.34196 37835 ft 500 kts 93°
2026-04-25 17:26 53.08812 -35.22597 37815 ft 500 kts 93°
2026-04-25 17:26 53.08827 -35.11038 37835 ft 502 kts 93°
2026-04-25 17:27 53.08833 -34.99394 37844 ft 502 kts 93°
2026-04-25 17:27 53.08830 -34.91610 37846 ft 502 kts 93°
2026-04-25 17:28 53.08809 -34.76137 37851 ft 502 kts 93°
2026-04-25 17:28 53.08781 -34.64568 37856 ft 502 kts 93°
2026-04-25 17:29 53.08740 -34.52936 37865 ft 503 kts 93°
2026-04-25 17:29 53.08688 -34.41269 37865 ft 504 kts 93°
2026-04-25 17:30 53.08626 -34.29586 37871 ft 505 kts 93°
2026-04-25 17:30 53.08552 -34.17981 37875 ft 505 kts 94°
2026-04-25 17:31 53.08466 -34.06291 37884 ft 504 kts 94°
2026-04-25 17:31 53.08369 -33.94670 37880 ft 505 kts 94°
2026-04-25 17:32 53.08259 -33.82953 37876 ft 506 kts 94°
2026-04-25 17:32 53.08138 -33.71215 37881 ft 506 kts 94°
2026-04-25 17:33 53.08007 -33.59567 37893 ft 506 kts 94°
2026-04-25 17:33 53.07864 -33.47859 37874 ft 506 kts 94°
2026-04-25 17:34 53.07709 -33.36139 37891 ft 507 kts 94°
2026-04-25 17:34 53.07541 -33.24396 37892 ft 508 kts 94°
2026-04-25 17:35 53.07364 -33.12718 37894 ft 508 kts 94°
2026-04-25 17:35 53.07174 -33.00960 37899 ft 508 kts 94°
2026-04-25 17:36 53.06972 -32.89208 37900 ft 508 kts 94°
2026-04-25 17:36 53.06758 -32.77442 37906 ft 508 kts 94°
2026-04-25 17:37 53.06535 -32.65764 37910 ft 508 kts 94°
2026-04-25 17:37 53.06299 -32.54065 37907 ft 508 kts 94°
2026-04-25 17:38 53.06134 -32.46195 37911 ft 508 kts 95°
2026-04-25 17:38 53.05791 -32.30565 37911 ft 508 kts 95°
2026-04-25 17:39 53.05520 -32.18807 37914 ft 508 kts 95°
2026-04-25 17:39 53.05238 -32.07120 37913 ft 508 kts 95°
2026-04-25 17:40 53.04943 -31.95363 37914 ft 508 kts 95°
2026-04-25 17:40 53.04637 -31.83601 37917 ft 508 kts 95°
2026-04-25 17:41 53.04321 -31.71910 37911 ft 508 kts 95°
2026-04-25 17:41 53.03992 -31.60163 37922 ft 509 kts 95°
2026-04-25 17:42 53.03651 -31.48403 37919 ft 509 kts 95°
2026-04-25 17:42 53.03298 -31.36656 37925 ft 510 kts 95°
2026-04-25 17:43 53.02933 -31.24891 37930 ft 510 kts 95°
2026-04-25 17:43 53.02559 -31.13186 37930 ft 510 kts 95°
2026-04-25 17:44 53.02171 -31.01418 37927 ft 510 kts 95°
2026-04-25 17:44 53.01773 -30.89703 37936 ft 510 kts 95°
2026-04-25 17:45 53.01499 -30.81828 37919 ft 511 kts 95°
2026-04-25 17:45 53.00938 -30.66158 37936 ft 512 kts 96°
2026-04-25 17:46 53.00501 -30.54329 37936 ft 512 kts 96°
2026-04-25 17:46 53.00130 -30.44530 37936 ft 512 kts 96°
2026-04-25 17:47 52.99597 -30.30792 37941 ft 512 kts 96°
2026-04-25 17:47 52.99125 -30.18983 37942 ft 512 kts 96°
2026-04-25 17:48 52.98484 -30.03242 37945 ft 513 kts 95°
2026-04-25 17:49 52.98668 -29.91425 37943 ft 515 kts 88°
2026-04-25 17:49 52.99133 -29.79538 37952 ft 515 kts 88°
2026-04-25 17:50 52.99629 -29.67665 37950 ft 515 kts 88°
2026-04-25 17:50 53.00104 -29.55775 37952 ft 516 kts 88°
2026-04-25 17:51 53.00555 -29.43921 37958 ft 516 kts 88°
2026-04-25 17:51 53.00993 -29.32009 37958 ft 516 kts 88°
2026-04-25 17:52 53.01419 -29.20101 37958 ft 516 kts 88°
2026-04-25 17:52 53.01831 -29.08263 37958 ft 516 kts 88°
2026-04-25 17:53 53.02234 -28.96348 37963 ft 516 kts 88°
2026-04-25 17:53 53.02626 -28.84398 37963 ft 516 kts 88°
2026-04-25 17:54 53.03003 -28.72533 37948 ft 516 kts 88°
2026-04-25 17:54 53.03371 -28.60575 37963 ft 517 kts 89°
2026-04-25 17:55 53.03727 -28.48626 37966 ft 517 kts 89°
2026-04-25 17:55 53.04069 -28.36753 37966 ft 517 kts 89°
2026-04-25 17:56 53.04400 -28.24816 37969 ft 517 kts 89°
2026-04-25 17:56 53.04720 -28.12886 37966 ft 517 kts 89°
2026-04-25 17:57 53.05027 -28.00940 37969 ft 517 kts 89°
2026-04-25 17:57 53.05321 -27.89076 37969 ft 517 kts 89°
2026-04-25 17:58 53.05605 -27.77121 37971 ft 517 kts 89°
2026-04-25 17:58 53.05877 -27.65167 37971 ft 517 kts 89°
2026-04-25 17:59 53.06136 -27.53267 37974 ft 517 kts 89°
2026-04-25 17:59 53.06385 -27.41294 37976 ft 517 kts 89°
2026-04-25 18:00 53.06620 -27.29350 37969 ft 517 kts 89°
2026-04-25 18:00 53.06845 -27.17381 37974 ft 517 kts 89°
2026-04-25 18:01 53.07056 -27.05493 37975 ft 517 kts 89°
2026-04-25 18:01 53.07256 -26.93502 37978 ft 517 kts 90°
2026-04-25 18:02 53.07445 -26.81519 37978 ft 517 kts 90°
2026-04-25 18:02 53.07620 -26.69630 37972 ft 517 kts 90°
2026-04-25 18:03 53.07784 -26.57656 37974 ft 517 kts 90°
2026-04-25 18:03 53.07937 -26.45684 37982 ft 517 kts 90°
2026-04-25 18:04 53.08076 -26.33774 37981 ft 517 kts 90°
2026-04-25 18:04 53.08205 -26.21794 37976 ft 517 kts 90°
2026-04-25 18:05 53.08321 -26.09829 37986 ft 517 kts 90°
2026-04-25 18:05 53.08426 -25.97846 37981 ft 517 kts 90°
2026-04-25 18:06 53.08517 -25.85952 37990 ft 517 kts 90°
2026-04-25 18:06 53.08598 -25.73968 37991 ft 517 kts 90°
2026-04-25 18:07 53.08666 -25.61980 37989 ft 517 kts 90°
2026-04-25 18:07 53.08723 -25.50006 37982 ft 517 kts 91°
2026-04-25 18:08 53.08767 -25.38115 37981 ft 517 kts 91°
2026-04-25 18:08 53.08799 -25.26138 37990 ft 517 kts 91°
2026-04-25 18:09 53.08819 -25.14169 37979 ft 517 kts 91°
2026-04-25 18:09 53.08828 -25.02267 37990 ft 516 kts 91°
2026-04-25 18:10 53.08824 -24.90369 37986 ft 516 kts 91°
2026-04-25 18:10 53.08809 -24.78393 37993 ft 516 kts 91°
2026-04-25 18:11 53.08781 -24.66439 37991 ft 516 kts 91°
2026-04-25 18:11 53.08742 -24.54561 37997 ft 516 kts 91°
2026-04-25 18:12 53.08691 -24.42619 38001 ft 516 kts 91°
2026-04-25 18:12 53.08627 -24.30653 37997 ft 516 kts 92°
2026-04-25 18:13 53.08552 -24.18771 37989 ft 516 kts 92°
2026-04-25 18:13 53.08465 -24.06828 37999 ft 516 kts 92°
2026-04-25 18:14 53.08312 -23.88895 37994 ft 516 kts 92°
2026-04-25 18:14 53.08196 -23.77036 37996 ft 515 kts 92°
2026-04-25 18:15 53.08067 -23.65095 38005 ft 515 kts 92°
2026-04-25 18:15 53.07927 -23.53221 38004 ft 515 kts 92°
2026-04-25 18:16 53.07774 -23.41297 38005 ft 515 kts 93°
2026-04-25 18:17 53.07524 -23.23475 38001 ft 515 kts 93°
2026-04-25 18:17 53.07341 -23.11519 38013 ft 515 kts 93°
2026-04-25 18:18 53.07148 -22.99668 38011 ft 515 kts 93°
2026-04-25 18:18 53.06942 -22.87745 38012 ft 515 kts 93°
2026-04-25 18:19 53.06724 -22.75824 38012 ft 515 kts 94°
2026-04-25 18:19 53.06494 -22.63905 38011 ft 514 kts 94°
2026-04-25 18:20 53.06254 -22.52088 38008 ft 514 kts 94°
2026-04-25 18:20 53.06001 -22.40186 38017 ft 514 kts 94°
2026-04-25 18:21 53.05737 -22.28355 38018 ft 514 kts 94°
2026-04-25 18:21 53.05460 -22.16461 38025 ft 514 kts 94°
2026-04-25 18:22 53.05171 -22.04563 38024 ft 514 kts 94°
2026-04-25 18:22 53.04872 -21.92736 38026 ft 514 kts 94°
2026-04-25 18:23 53.04561 -21.80865 38027 ft 514 kts 95°
2026-04-25 18:23 53.04236 -21.68948 38024 ft 514 kts 95°
2026-04-25 18:24 53.03902 -21.57151 38024 ft 514 kts 95°
2026-04-25 18:24 53.03554 -21.45272 38027 ft 513 kts 95°
2026-04-25 18:25 53.03198 -21.33500 38034 ft 512 kts 95°
2026-04-25 18:25 53.02827 -21.21658 38038 ft 512 kts 95°
2026-04-25 18:26 53.02448 -21.09886 38038 ft 512 kts 95°
2026-04-25 18:26 53.02054 -20.98048 38041 ft 512 kts 95°
2026-04-25 18:27 53.01649 -20.86238 38041 ft 512 kts 95°
2026-04-25 18:27 53.01233 -20.74429 38044 ft 512 kts 95°
2026-04-25 18:28 53.00808 -20.62686 38048 ft 512 kts 96°
2026-04-25 18:28 53.00367 -20.50854 38052 ft 512 kts 96°
2026-04-25 18:29 52.99685 -20.33154 38032 ft 512 kts 96°
2026-04-25 18:30 52.98741 -20.09661 38055 ft 511 kts 96°
2026-04-25 18:30 52.98423 -19.97882 38062 ft 512 kts 91°
2026-04-25 18:31 52.98587 -19.86104 38057 ft 513 kts 90°
2026-04-25 18:31 52.98823 -19.74239 38062 ft 513 kts 90°
2026-04-25 18:32 52.99055 -19.62391 38059 ft 513 kts 90°
2026-04-25 18:32 52.99265 -19.50625 38061 ft 513 kts 90°
2026-04-25 18:33 52.99459 -19.38753 38073 ft 513 kts 91°
2026-04-25 18:33 52.99641 -19.26889 38074 ft 513 kts 91°
2026-04-25 18:34 52.99809 -19.15101 38067 ft 513 kts 91°
2026-04-25 18:34 52.99968 -19.03223 38078 ft 513 kts 91°
2026-04-25 18:35 53.00114 -18.91404 38075 ft 514 kts 91°
2026-04-25 18:35 53.00249 -18.79507 38081 ft 514 kts 91°
2026-04-25 18:36 53.00372 -18.67704 38076 ft 513 kts 91°
2026-04-25 18:36 53.00465 -18.57840 38078 ft 513 kts 91°
2026-04-25 18:37 53.00568 -18.45970 38081 ft 513 kts 92°
2026-04-25 18:37 53.00657 -18.34101 38088 ft 513 kts 92°
2026-04-25 18:38 53.00735 -18.22238 38088 ft 513 kts 92°
2026-04-25 18:38 53.00801 -18.10408 38093 ft 513 kts 92°
2026-04-25 18:39 53.00855 -17.98597 38089 ft 513 kts 92°
2026-04-25 18:39 53.00897 -17.86708 38097 ft 514 kts 92°
2026-04-25 18:40 53.00928 -17.74897 38097 ft 514 kts 92°
2026-04-25 18:40 53.00947 -17.63028 38103 ft 513 kts 92°
2026-04-25 18:41 53.00954 -17.51142 38094 ft 513 kts 93°
2026-04-25 18:41 53.00950 -17.39361 38106 ft 513 kts 93°
2026-04-25 18:42 53.00937 -17.29485 38111 ft 513 kts 93°
2026-04-25 18:42 53.00905 -17.15587 38108 ft 513 kts 93°
2026-04-25 18:43 53.00865 -17.03792 38112 ft 513 kts 93°
2026-04-25 18:43 53.00814 -16.91949 38111 ft 512 kts 93°
2026-04-25 18:44 53.00751 -16.80178 38118 ft 511 kts 94°
2026-04-25 18:44 53.00675 -16.68361 38119 ft 511 kts 94°
2026-04-25 18:45 53.00589 -16.56538 38121 ft 511 kts 94°
2026-04-25 18:45 53.00825 -16.45218 38123 ft 514 kts 85°
2026-04-25 18:46 53.01630 -16.33452 38129 ft 514 kts 88°
2026-04-25 18:46 53.01935 -16.21593 38133 ft 512 kts 92°
2026-04-25 18:47 53.01861 -16.09833 38130 ft 511 kts 94°
2026-04-25 18:47 53.01679 -15.97993 38132 ft 511 kts 94°
2026-04-25 18:48 53.01498 -15.86254 38135 ft 511 kts 94°
2026-04-25 18:48 53.01323 -15.74416 38137 ft 511 kts 94°
2026-04-25 18:49 53.01145 -15.62677 38141 ft 511 kts 94°
2026-04-25 18:49 53.00955 -15.50877 38140 ft 511 kts 95°
2026-04-25 18:50 53.00753 -15.39076 38124 ft 511 kts 95°
2026-04-25 18:50 53.00538 -15.27279 38137 ft 510 kts 95°
2026-04-25 18:51 53.00352 -15.17527 38146 ft 510 kts 95°
2026-04-25 18:51 53.00075 -15.03750 38146 ft 510 kts 95°
2026-04-25 18:52 52.99906 -14.92008 38151 ft 511 kts 92°
2026-04-25 18:52 52.99982 -14.80199 38150 ft 511 kts 92°
2026-04-25 18:53 53.00069 -14.68393 38154 ft 511 kts 92°
2026-04-25 18:53 53.00104 -14.56567 38154 ft 511 kts 92°
2026-04-25 18:54 53.00100 -14.38906 38157 ft 511 kts 93°
2026-04-25 18:55 53.00081 -14.27083 38319 ft 511 kts 93°
2026-04-25 18:55 53.00067 -14.21255 38538 ft 511 kts 93°
2026-04-25 18:55 53.00052 -14.15337 38778 ft 510 kts 92°
2026-04-25 18:55 53.00033 -14.09449 38959 ft 510 kts 93°
2026-04-25 18:56 53.00008 -14.03559 39113 ft 509 kts 93°
2026-04-25 18:56 52.99751 -13.97706 39263 ft 507 kts 99°
2026-04-25 18:56 52.99335 -13.91976 39389 ft 506 kts 100°
2026-04-25 18:56 52.98870 -13.86180 39521 ft 506 kts 101°
2026-04-25 18:57 52.98380 -13.80383 39636 ft 506 kts 101°
2026-04-25 18:57 52.97879 -13.74588 39744 ft 507 kts 101°
2026-04-25 18:57 52.97373 -13.68793 39869 ft 507 kts 101°
2026-04-25 18:58 52.96368 -13.57272 40122 ft 507 kts 101°
2026-04-25 18:58 52.95356 -13.45698 40381 ft 506 kts 101°
2026-04-25 18:58 52.94847 -13.39910 40488 ft 506 kts 101°
2026-04-25 18:59 52.93821 -13.28357 40692 ft 506 kts 101°
2026-04-25 18:59 52.92783 -13.16790 40856 ft 507 kts 101°
2026-04-25 19:00 52.91740 -13.05302 41042 ft 507 kts 101°
2026-04-25 19:00 52.91209 -12.99511 41147 ft 507 kts 101°
2026-04-25 19:01 52.89603 -12.82163 41184 ft 507 kts 101°
2026-04-25 19:01 52.88526 -12.70681 41177 ft 507 kts 101°
2026-04-25 19:02 52.86878 -12.53362 41184 ft 507 kts 101°
2026-04-25 19:03 52.85584 -12.39954 41183 ft 507 kts 101°
2026-04-25 19:03 52.84087 -12.24636 41184 ft 507 kts 101°
2026-04-25 19:04 52.82371 -12.07337 41189 ft 507 kts 101°
2026-04-25 19:05 52.80053 -11.84377 41192 ft 507 kts 102°
2026-04-25 19:06 52.78875 -11.72886 41191 ft 507 kts 102°
2026-04-25 19:06 52.77094 -11.55730 41192 ft 507 kts 102°
2026-04-25 19:07 52.75278 -11.38483 41197 ft 507 kts 102°
2026-04-25 19:08 52.73446 -11.21343 41198 ft 507 kts 102°
2026-04-25 19:09 52.71166 -11.00340 41200 ft 507 kts 102°
2026-04-25 19:10 52.69063 -10.81278 41196 ft 507 kts 102°
2026-04-25 19:10 52.67791 -10.69896 41198 ft 507 kts 102°
2026-04-25 19:11 52.66500 -10.58442 41201 ft 507 kts 102°
2026-04-25 19:11 52.65204 -10.47054 41202 ft 507 kts 102°
2026-04-25 19:12 52.63890 -10.35608 41200 ft 507 kts 102°
2026-04-25 19:12 52.62572 -10.24230 41204 ft 507 kts 102°
2026-04-25 19:13 52.61239 -10.12822 41206 ft 507 kts 102°
2026-04-25 19:13 52.59901 -10.01474 41203 ft 507 kts 102°
2026-04-25 19:14 52.58544 -9.90066 41203 ft 507 kts 102°
2026-04-25 19:14 52.57186 -9.78743 41210 ft 507 kts 103°
2026-04-25 19:15 52.55808 -9.67354 41208 ft 507 kts 103°
2026-04-25 19:15 52.54423 -9.55997 41206 ft 507 kts 103°
2026-04-25 19:16 52.53032 -9.44695 41197 ft 507 kts 103°
2026-04-25 19:16 52.51619 -9.33313 41193 ft 507 kts 103°
2026-04-25 19:17 52.50208 -9.22031 41193 ft 507 kts 103°
2026-04-25 19:17 52.48778 -9.10698 41185 ft 507 kts 103°
2026-04-25 19:18 52.47335 -8.99348 41190 ft 507 kts 103°
2026-04-25 19:18 52.45893 -8.88103 41191 ft 506 kts 103°
2026-04-25 19:19 52.44433 -8.76808 41187 ft 506 kts 103°
2026-04-25 19:19 52.42961 -8.65518 41189 ft 506 kts 103°
2026-04-25 19:20 52.41489 -8.54308 41183 ft 506 kts 103°
2026-04-25 19:20 52.39996 -8.43028 41187 ft 506 kts 103°
2026-04-25 19:21 52.38489 -8.31739 41178 ft 506 kts 103°
2026-04-25 19:21 52.36222 -8.14904 41179 ft 506 kts 104°
2026-04-25 19:22 52.34687 -8.03619 41184 ft 507 kts 104°
2026-04-25 19:23 52.32379 -7.86813 41185 ft 506 kts 104°
2026-04-25 19:23 52.30041 -7.69983 41193 ft 506 kts 104°
2026-04-25 19:24 52.28474 -7.58809 41191 ft 506 kts 104°
2026-04-25 19:25 52.25565 -7.38278 41189 ft 506 kts 104°
2026-04-25 19:25 52.23963 -7.27087 41196 ft 506 kts 104°
2026-04-25 19:26 52.22351 -7.15909 41198 ft 506 kts 104°
2026-04-25 19:26 52.20738 -7.04808 41201 ft 506 kts 104°
2026-04-25 19:27 52.19380 -6.95517 41199 ft 506 kts 104°
2026-04-25 19:27 52.17468 -6.82537 41201 ft 505 kts 104°
2026-04-25 19:28 52.15812 -6.71379 41203 ft 505 kts 104°
2026-04-25 19:28 52.14158 -6.60310 41202 ft 505 kts 104°
2026-04-25 19:29 52.12484 -6.49189 41203 ft 505 kts 104°
2026-04-25 19:29 52.10798 -6.38067 41196 ft 505 kts 104°
2026-04-25 19:30 52.09103 -6.26956 41207 ft 504 kts 104°
2026-04-25 19:30 52.07411 -6.15951 41207 ft 504 kts 105°
2026-04-25 19:31 52.05698 -6.04877 41210 ft 504 kts 105°
2026-04-25 19:31 52.03914 -5.93933 41208 ft 504 kts 106°
2026-04-25 19:32 52.01998 -5.82979 41211 ft 503 kts 107°
2026-04-25 19:32 52.00405 -5.73905 41213 ft 503 kts 107°
2026-04-25 19:33 51.98185 -5.61194 41210 ft 502 kts 107°
2026-04-25 19:33 51.96281 -5.50301 41209 ft 502 kts 107°
2026-04-25 19:34 51.94359 -5.39367 41212 ft 502 kts 107°
2026-04-25 19:34 51.92644 -5.28438 41206 ft 503 kts 101°
2026-04-25 19:35 51.91522 -5.17240 41209 ft 504 kts 98°
2026-04-25 19:35 51.90555 -5.05986 41210 ft 504 kts 98°
2026-04-25 19:36 51.89576 -4.94717 41211 ft 504 kts 98°
2026-04-25 19:36 51.88565 -4.83505 41212 ft 503 kts 99°
2026-04-25 19:37 51.87535 -4.72346 41211 ft 503 kts 99°
2026-04-25 19:37 51.86487 -4.61128 41208 ft 503 kts 99°
2026-04-25 19:38 51.85438 -4.50001 41215 ft 503 kts 99°
2026-04-25 19:38 51.84373 -4.38814 41205 ft 502 kts 99°
2026-04-25 19:39 51.83298 -4.27638 41210 ft 502 kts 99°
2026-04-25 19:39 51.82217 -4.16519 41210 ft 502 kts 99°
2026-04-25 19:40 51.81120 -4.05347 41208 ft 502 kts 99°
2026-04-25 19:40 51.80010 -3.94166 41206 ft 502 kts 99°
2026-04-25 19:41 51.78899 -3.83066 41211 ft 502 kts 99°
2026-04-25 19:41 51.78154 -3.75690 41210 ft 502 kts 100°
2026-04-25 19:42 51.76642 -3.60870 41214 ft 501 kts 100°
2026-04-25 19:42 51.75494 -3.49739 41202 ft 501 kts 100°
2026-04-25 19:43 51.74342 -3.38684 41241 ft 502 kts 100°
2026-04-25 19:43 51.73174 -3.27578 41238 ft 502 kts 100°
2026-04-25 19:44 51.71994 -3.16457 41249 ft 502 kts 100°
2026-04-25 19:44 51.70812 -3.05420 41264 ft 502 kts 100°
2026-04-25 19:45 51.69610 -2.94309 41277 ft 502 kts 100°
2026-04-25 19:45 51.68401 -2.83233 41267 ft 501 kts 100°
2026-04-25 19:46 51.67186 -2.72207 41211 ft 502 kts 101°
2026-04-25 19:46 51.65958 -2.61153 41221 ft 502 kts 101°
2026-04-25 19:47 51.64721 -2.50123 41214 ft 502 kts 101°
2026-04-25 19:47 51.63498 -2.39034 41209 ft 502 kts 98°
2026-04-25 19:48 51.62714 -2.27855 41205 ft 502 kts 95°
2026-04-25 19:48 51.62069 -2.16734 41209 ft 502 kts 96°
2026-04-25 19:49 51.61593 -2.09219 41207 ft 502 kts 96°
2026-04-25 19:49 51.60568 -1.94418 41209 ft 502 kts 97°
2026-04-25 19:50 51.59404 -1.77688 41199 ft 502 kts 93°
2026-04-25 19:51 51.59775 -1.66459 41207 ft 501 kts 82°
2026-04-25 19:51 51.60838 -1.55386 41213 ft 502 kts 79°
2026-04-25 19:52 51.62024 -1.44297 41228 ft 502 kts 79°
2026-04-25 19:52 51.63172 -1.33200 41212 ft 502 kts 80°
2026-04-25 19:53 51.64272 -1.22142 41207 ft 502 kts 80°
2026-04-25 19:53 51.65359 -1.10996 41209 ft 502 kts 81°
2026-04-25 19:54 51.66426 -0.99936 41207 ft 502 kts 81°
2026-04-25 19:54 51.67491 -0.88808 41208 ft 502 kts 81°
2026-04-25 19:55 51.68546 -0.77673 41210 ft 502 kts 81°
2026-04-25 19:55 51.69583 -0.66613 41205 ft 502 kts 81°
2026-04-25 19:56 51.70623 -0.55407 41246 ft 502 kts 81°
2026-04-25 19:56 51.71642 -0.44309 41263 ft 502 kts 81°
2026-04-25 19:57 51.72648 -0.33228 41267 ft 502 kts 81°
2026-04-25 19:57 51.73651 -0.22054 41267 ft 502 kts 81°
2026-04-25 19:58 51.74643 -0.10898 41261 ft 502 kts 81°
2026-04-25 19:58 51.75617 0.00198 41214 ft 502 kts 81°
2026-04-25 19:59 51.76751 0.11319 41211 ft 500 kts 75°
2026-04-25 19:59 51.78475 0.22195 41210 ft 500 kts 73°
2026-04-25 20:00 51.80322 0.33003 41207 ft 500 kts 73°
2026-04-25 20:00 51.82179 0.43853 41212 ft 499 kts 73°
2026-04-25 20:01 51.84909 0.60076 41221 ft 499 kts 73°
2026-04-25 20:01 51.86701 0.70856 41222 ft 498 kts 74°
2026-04-25 20:02 51.88495 0.81719 41242 ft 498 kts 74°
2026-04-25 20:02 51.90280 0.92588 41241 ft 498 kts 74°
2026-04-25 20:03 51.92041 1.03389 41245 ft 498 kts 74°
2026-04-25 20:03 51.93801 1.14245 41246 ft 497 kts 74°
2026-04-25 20:04 51.95553 1.25122 41254 ft 497 kts 74°
2026-04-25 20:04 51.97279 1.35909 41253 ft 497 kts 74°
2026-04-25 20:05 51.99007 1.46778 41263 ft 497 kts 74°
2026-04-25 20:05 52.00725 1.57659 41261 ft 496 kts 74°
2026-04-25 20:06 52.01981 1.68637 41265 ft 497 kts 84°
2026-04-25 20:06 52.02390 1.79792 41264 ft 498 kts 86°
2026-04-25 20:07 52.02576 1.91068 41259 ft 498 kts 88°
2026-04-25 20:07 52.02700 2.02318 41264 ft 498 kts 88°
2026-04-25 20:08 52.02802 2.11696 41269 ft 498 kts 88°
2026-04-25 20:08 52.02925 2.22888 41263 ft 498 kts 88°
2026-04-25 20:09 52.03044 2.34153 41267 ft 498 kts 88°
2026-04-25 20:09 52.03151 2.45367 41272 ft 498 kts 88°
2026-04-25 20:10 52.03248 2.56630 41263 ft 498 kts 88°
2026-04-25 20:10 52.03333 2.67874 41266 ft 498 kts 88°
2026-04-25 20:11 52.03408 2.79078 41261 ft 498 kts 88°
2026-04-25 20:11 52.03472 2.90355 41260 ft 498 kts 88°
2026-04-25 20:12 52.03525 3.01560 41260 ft 498 kts 88°
2026-04-25 20:12 52.03562 3.10919 41260 ft 498 kts 89°
2026-04-25 20:13 52.03583 3.24117 41249 ft 498 kts 89°
2026-04-25 20:13 52.03300 3.35307 41241 ft 499 kts 92°
2026-04-25 20:14 52.02931 3.46604 41240 ft 499 kts 92°
2026-04-25 20:14 52.02581 3.57805 41231 ft 499 kts 92°
2026-04-25 20:15 52.02226 3.69091 41231 ft 499 kts 92°
2026-04-25 20:15 52.01866 3.80292 41234 ft 499 kts 92°
2026-04-25 20:16 52.01494 3.91566 41240 ft 499 kts 92°
2026-04-25 20:16 52.01112 4.02828 41247 ft 500 kts 92°
2026-04-25 20:17 52.00718 4.14104 41234 ft 500 kts 92°
2026-04-25 20:17 52.00317 4.25281 41241 ft 500 kts 92°
2026-04-25 20:18 51.99901 4.36571 41246 ft 500 kts 92°
2026-04-25 20:18 51.99475 4.47858 41235 ft 500 kts 92°
2026-04-25 20:19 51.99041 4.59057 41234 ft 500 kts 92°
2026-04-25 20:19 51.98593 4.70329 41222 ft 500 kts 92°
2026-04-25 20:20 51.98135 4.81594 41216 ft 500 kts 92°
2026-04-25 20:20 51.97670 4.92773 41221 ft 500 kts 92°
2026-04-25 20:21 51.97189 5.04057 41219 ft 500 kts 92°
2026-04-25 20:21 51.96699 5.15323 41219 ft 500 kts 93°
2026-04-25 20:22 51.96283 5.24675 41221 ft 500 kts 93°
2026-04-25 20:22 51.95688 5.37785 41214 ft 500 kts 93°
2026-04-25 20:23 51.95167 5.48994 41208 ft 501 kts 93°
2026-04-25 20:23 51.94632 5.60290 41210 ft 501 kts 93°
2026-04-25 20:24 51.94087 5.71549 41209 ft 501 kts 93°
2026-04-25 20:24 51.93535 5.82744 41202 ft 501 kts 93°
2026-04-25 20:25 51.92968 5.94008 41202 ft 501 kts 93°
2026-04-25 20:25 51.92387 6.05341 41209 ft 502 kts 93°
2026-04-25 20:26 51.91801 6.16571 41193 ft 502 kts 93°
2026-04-25 20:26 51.91205 6.27769 41197 ft 502 kts 93°
2026-04-25 20:27 51.90593 6.39062 41199 ft 502 kts 93°
2026-04-25 20:27 51.89974 6.50285 41190 ft 503 kts 93°
2026-04-25 20:28 51.89341 6.61581 41191 ft 503 kts 93°
2026-04-25 20:28 51.88694 6.72906 41183 ft 503 kts 93°
2026-04-25 20:29 51.88041 6.84159 41195 ft 503 kts 93°
2026-04-25 20:29 51.87374 6.95468 41188 ft 505 kts 93°
2026-04-25 20:30 51.86699 7.06713 41178 ft 505 kts 93°
2026-04-25 20:30 51.86008 7.18046 41179 ft 505 kts 94°
2026-04-25 20:31 51.85306 7.29373 41181 ft 505 kts 94°
2026-04-25 20:31 51.84599 7.40607 41177 ft 506 kts 94°
2026-04-25 20:32 51.83870 7.52006 41175 ft 507 kts 94°
2026-04-25 20:32 51.83136 7.63315 41172 ft 507 kts 94°
2026-04-25 20:33 51.82389 7.74651 41173 ft 507 kts 94°
2026-04-25 20:33 51.81758 7.84096 41171 ft 508 kts 94°
2026-04-25 20:34 51.80861 7.97343 41165 ft 509 kts 94°
2026-04-25 20:34 51.80078 8.08721 41164 ft 509 kts 94°
2026-04-25 20:35 51.79283 8.20110 41158 ft 509 kts 94°
2026-04-25 20:35 51.78479 8.31462 40753 ft 510 kts 94°
2026-04-25 20:36 51.78071 8.37164 40183 ft 511 kts 94°
2026-04-25 20:36 51.77660 8.42864 39570 ft 511 kts 94°
2026-04-25 20:36 51.77252 8.48499 39011 ft 511 kts 94°
2026-04-25 20:36 51.76837 8.54197 38478 ft 511 kts 94°
2026-04-25 20:37 51.76419 8.59920 37910 ft 511 kts 94°
2026-04-25 20:37 51.75998 8.65619 37364 ft 511 kts 94°
2026-04-25 20:37 51.75572 8.71331 36830 ft 511 kts 94°
2026-04-25 20:37 51.75150 8.76968 36332 ft 511 kts 94°
2026-04-25 20:38 51.74719 8.82676 35840 ft 512 kts 94°
2026-04-25 20:38 51.74284 8.88392 35325 ft 512 kts 94°
2026-04-25 20:38 51.73848 8.94099 34835 ft 513 kts 94°
2026-04-25 20:38 51.73412 8.99757 34344 ft 513 kts 94°
2026-04-25 20:39 51.72968 9.05477 33835 ft 514 kts 94°
2026-04-25 20:39 51.72521 9.11197 33284 ft 511 kts 94°
2026-04-25 20:39 51.72075 9.16870 32741 ft 505 kts 94°
2026-04-25 20:39 51.71931 9.18690 32577 ft 503 kts 94°
2026-04-25 20:40 51.71192 9.28003 31702 ft 495 kts 94°
2026-04-25 20:40 51.70760 9.33414 31204 ft 490 kts 95°
2026-04-25 20:40 51.70324 9.38832 30711 ft 486 kts 95°
2026-04-25 20:40 51.69885 9.44250 30219 ft 483 kts 95°
2026-04-25 20:41 51.69449 9.49626 29649 ft 480 kts 95°
2026-04-25 20:41 51.69017 9.54891 29088 ft 477 kts 95°
2026-04-25 20:41 51.68581 9.60181 28562 ft 473 kts 95°
2026-04-25 20:41 51.68146 9.65431 28007 ft 469 kts 95°
2026-04-25 20:42 51.67713 9.70637 27506 ft 466 kts 95°
2026-04-25 20:42 51.67280 9.75803 26984 ft 463 kts 94°
2026-04-25 20:42 51.66848 9.80942 26480 ft 461 kts 94°
2026-04-25 20:42 51.66421 9.85987 25982 ft 458 kts 94°
2026-04-25 20:43 51.65990 9.91056 25475 ft 455 kts 94°
2026-04-25 20:43 51.65559 9.96090 25010 ft 451 kts 94°
2026-04-25 20:43 51.65129 10.01086 24525 ft 448 kts 94°
2026-04-25 20:43 51.64701 10.06037 24060 ft 445 kts 94°
2026-04-25 20:44 51.64275 10.10965 23574 ft 442 kts 94°
2026-04-25 20:44 51.63853 10.15793 23042 ft 439 kts 94°
2026-04-25 20:44 51.63426 10.20662 22516 ft 436 kts 94°
2026-04-25 20:44 51.63001 10.25485 21989 ft 434 kts 94°
2026-04-25 20:45 51.62574 10.30297 21461 ft 431 kts 94°
2026-04-25 20:45 51.62150 10.35066 20949 ft 429 kts 94°
2026-04-25 20:45 51.61733 10.39744 20453 ft 426 kts 94°
2026-04-25 20:45 51.61311 10.44445 19962 ft 423 kts 94°
2026-04-25 20:46 51.60889 10.49114 19473 ft 420 kts 94°
2026-04-25 20:46 51.60470 10.53744 18999 ft 417 kts 94°
2026-04-25 20:46 51.60050 10.58361 18521 ft 415 kts 94°
2026-04-25 20:46 51.59631 10.62941 18020 ft 412 kts 94°
2026-04-25 20:47 51.59212 10.67501 17479 ft 410 kts 94°
2026-04-25 20:47 51.58800 10.71967 17144 ft 407 kts 94°
2026-04-25 20:47 51.58382 10.76475 16935 ft 407 kts 94°
2026-04-25 20:47 51.57964 10.80981 16570 ft 405 kts 94°
2026-04-25 20:48 51.57547 10.85467 16181 ft 403 kts 94°
2026-04-25 20:48 51.57128 10.89920 15808 ft 401 kts 95°
2026-04-25 20:48 51.56713 10.94299 15434 ft 399 kts 95°
2026-04-25 20:48 51.56297 10.98694 15066 ft 397 kts 95°
2026-04-25 20:49 51.55879 11.03091 14706 ft 395 kts 95°
2026-04-25 20:49 51.55464 11.07450 14336 ft 393 kts 95°
2026-04-25 20:49 51.55053 11.11750 13985 ft 391 kts 95°
2026-04-25 20:49 51.54639 11.16058 13614 ft 390 kts 95°
2026-04-25 20:50 51.54221 11.20382 13214 ft 389 kts 95°
2026-04-25 20:50 51.53806 11.24662 12817 ft 384 kts 95°
2026-04-25 20:50 51.53401 11.28808 12422 ft 377 kts 95°
2026-04-25 20:50 51.52998 11.32926 12042 ft 370 kts 95°
2026-04-25 20:51 51.52600 11.36990 11663 ft 363 kts 95°
2026-04-25 20:51 51.52209 11.40970 11290 ft 357 kts 95°
2026-04-25 20:51 51.51823 11.44879 10942 ft 350 kts 96°
2026-04-25 20:51 51.51465 11.48656 10696 ft 341 kts 93°
2026-04-25 20:52 51.51377 11.52392 10441 ft 327 kts 82°
2026-04-25 20:52 51.51420 11.53622 10360 ft 324 kts 81°
2026-04-25 20:52 51.51736 11.59586 9959 ft 321 kts 79°
2026-04-25 20:52 51.51931 11.63163 9688 ft 321 kts 80°
2026-04-25 20:53 51.52118 11.66684 9243 ft 320 kts 80°
2026-04-25 20:53 51.52307 11.70227 8856 ft 317 kts 80°
2026-04-25 20:53 51.52486 11.73748 8458 ft 314 kts 80°
2026-04-25 20:53 51.52662 11.77243 8078 ft 312 kts 80°
2026-04-25 20:54 51.52842 11.80703 7682 ft 310 kts 80°
2026-04-25 20:54 51.53012 11.84113 7270 ft 308 kts 80°
2026-04-25 20:54 51.53180 11.87535 6915 ft 305 kts 80°
2026-04-25 20:54 51.53350 11.90920 6565 ft 302 kts 79°
2026-04-25 20:55 51.53515 11.94279 6145 ft 300 kts 80°
2026-04-25 20:55 51.53622 11.96499 5868 ft 299 kts 80°
2026-04-25 20:55 51.53837 12.00909 5355 ft 296 kts 80°
2026-04-25 20:55 51.53995 12.04187 5060 ft 293 kts 80°
2026-04-25 20:56 51.54101 12.06397 5004 ft 294 kts 80°
2026-04-25 20:56 51.54256 12.09648 5001 ft 294 kts 80°
2026-04-25 20:56 51.54412 12.12944 5017 ft 295 kts 80°
2026-04-25 20:56 51.54569 12.16244 5009 ft 297 kts 80°
2026-04-25 20:57 51.54725 12.19560 5015 ft 297 kts 80°
2026-04-25 20:57 51.54881 12.22886 5013 ft 298 kts 80°
2026-04-25 20:57 51.55035 12.26164 5011 ft 296 kts 80°
2026-04-25 20:57 51.55179 12.29392 5003 ft 280 kts 80°
2026-04-25 20:58 51.55313 12.32430 5004 ft 267 kts 80°
2026-04-25 20:58 51.55451 12.35399 5011 ft 265 kts 79°
2026-04-25 20:58 51.55589 12.38322 5009 ft 265 kts 79°
2026-04-25 20:58 51.55723 12.41283 5008 ft 265 kts 79°
2026-04-25 20:59 51.55855 12.44240 5003 ft 265 kts 79°
2026-04-25 20:59 51.55989 12.47192 5001 ft 265 kts 79°
2026-04-25 20:59 51.56125 12.50163 5001 ft 266 kts 80°
2026-04-25 20:59 51.56254 12.53126 5000 ft 266 kts 80°
2026-04-25 21:00 51.56381 12.56061 4997 ft 266 kts 80°
2026-04-25 21:00 51.56467 12.58022 4997 ft 265 kts 79°
2026-04-25 21:00 51.56767 12.64955 4989 ft 267 kts 80°
2026-04-25 21:01 51.56894 12.67934 4899 ft 268 kts 80°
2026-04-25 21:01 51.56774 12.70963 4498 ft 275 kts 103°
2026-04-25 21:01 51.55883 12.73589 4233 ft 271 kts 133°
2026-04-25 21:01 51.54373 12.75281 4014 ft 261 kts 165°
2026-04-25 21:02 51.52636 12.76083 3976 ft 258 kts 173°
2026-04-25 21:02 51.50885 12.76689 3971 ft 252 kts 174°
2026-04-25 21:02 51.49232 12.77200 3962 ft 236 kts 181°
2026-04-25 21:02 51.47696 12.76815 3984 ft 214 kts 216°
2026-04-25 21:03 51.46531 12.75480 3992 ft 202 kts 232°
2026-04-25 21:03 51.45773 12.73713 3999 ft 186 kts 263°
2026-04-25 21:03 51.45542 12.71741 3996 ft 180 kts 270°
2026-04-25 21:03 51.45413 12.69743 3996 ft 180 kts 272°
2026-04-25 21:04 51.45318 12.67744 3995 ft 179 kts 272°
2026-04-25 21:04 51.45229 12.65748 3995 ft 179 kts 272°
2026-04-25 21:04 51.45130 12.63787 3996 ft 179 kts 271°
2026-04-25 21:04 51.45023 12.61780 4000 ft 181 kts 271°
2026-04-25 21:05 51.44917 12.59772 3996 ft 181 kts 271°
2026-04-25 21:05 51.44817 12.57752 4000 ft 181 kts 272°
2026-04-25 21:05 51.44721 12.55734 3994 ft 181 kts 272°
2026-04-25 21:05 51.44631 12.53759 3869 ft 177 kts 273°
2026-04-25 21:06 51.44543 12.51811 3626 ft 172 kts 273°
2026-04-25 21:06 51.44452 12.49923 3402 ft 166 kts 272°
2026-04-25 21:06 51.44367 12.48096 3130 ft 161 kts 274°
2026-04-25 21:06 51.44315 12.46923 2978 ft 157 kts 274°
2026-04-25 21:07 51.44208 12.44641 2700 ft 154 kts 274°
2026-04-25 21:07 51.44128 12.42924 2482 ft 155 kts 274°
2026-04-25 21:07 51.44048 12.41197 2268 ft 156 kts 274°
2026-04-25 21:07 51.43966 12.39460 2053 ft 156 kts 272°
2026-04-25 21:08 51.43882 12.37753 1849 ft 149 kts 273°
2026-04-25 21:08 51.43809 12.36174 1649 ft 138 kts 273°
2026-04-25 21:08 51.43739 12.34703 1456 ft 127 kts 274°
2026-04-25 21:08 51.43676 12.33309 1291 ft 124 kts 274°
2026-04-25 21:09 51.43536 12.30411 955 ft 135 kts 271°
2026-04-25 21:09 51.43463 12.28916 753 ft 133 kts 272°
2026-04-25 21:09 51.43401 12.27491 579 ft 125 kts 272°
2026-04-25 21:10 51.43333 12.26120 460 ft 122 kts 274°
2026-04-25 21:10 51.43284 12.24932 455 ft 92 kts 264°
2026-04-25 21:10 51.43240 12.24063 447 ft 63 kts 266°
2026-04-25 21:10 51.43215 12.23531 448 ft 33 kts 266°
2026-04-25 21:11 51.43200 12.23216 448 ft 27 kts 263°
2026-04-25 21:11 51.43148 12.22930 428 ft 27 kts 245°
2026-04-25 21:11 51.43071 12.22735 425 ft 20 kts 235°
2026-04-25 21:11 51.42961 12.22582 431 ft 21 kts 186°
2026-04-25 21:12 51.42865 12.22500 434 ft 16 kts 251°
2026-04-25 21:12 51.42847 12.22311 443 ft 18 kts 265°
2026-04-25 21:12 51.42837 12.22101 432 ft 21 kts 265°
2026-04-25 21:12 51.42828 12.21940 428 ft 23 kts 265°
2026-04-25 21:13 51.42812 12.21582 427 ft 25 kts 266°
2026-04-25 21:13 51.42804 12.21392 429 ft 13 kts 266°
2026-04-25 21:13 51.42783 12.21265 426 ft 13 kts 234°
2026-04-25 21:13 51.42683 12.21196 428 ft 18 kts 195°
2026-04-25 21:14 51.42553 12.21139 432 ft 21 kts 195°
2026-04-25 21:14 51.42420 12.21081 428 ft 14 kts 195°
2026-04-25 21:14 51.42312 12.21033 429 ft 19 kts 195°
2026-04-25 21:14 51.42192 12.20982 422 ft 16 kts 195°
2026-04-25 21:15 51.42112 12.20946 421 ft 13 kts 195°
2026-04-25 21:15 51.42028 12.20925 426 ft 12 kts 166°
2026-04-25 21:15 51.41975 12.21045 423 ft 16 kts 108°
2026-04-25 21:15 51.41952 12.21177 424 ft 6 kts 105°
2026-04-25 21:16 51.41951 12.21184 425 ft 2 kts 104°
2026-04-25 21:16 51.41935 12.21281 426 ft 11 kts 105°
2026-04-25 21:16 51.41914 12.21401 429 ft 11 kts 105°
2026-04-25 21:16 51.41896 12.21505 432 ft 8 kts 105°
2026-04-25 21:17 51.41882 12.21582 444 ft 7 kts 105°
2026-04-25 21:17 51.41872 12.21640 431 ft 3 kts 105°
2026-04-25 21:17 51.41867 12.21674 432 ft 4 kts 104°
2026-04-25 21:17 51.41856 12.21740 435 ft 8 kts 105°
2026-04-25 21:18 51.41841 12.21828 439 ft 8 kts 105°
2026-04-25 21:18 51.41827 12.21912 433 ft 8 kts 105°
2026-04-25 21:18 51.41813 12.21990 434 ft 7 kts 105°
2026-04-25 21:18 51.41809 12.22048 427 ft 3 kts 76°
2026-04-25 21:19 51.41820 12.22066 436 ft 3 kts 41°
2026-04-25 21:19 51.41852 12.22087 427 ft 5 kts 18°
2026-04-25 21:19 51.41880 12.22101 436 ft 3 kts 15°
2026-04-25 21:19 51.41892 12.22107 434 ft 1 kts 15°
2026-04-25 21:20 51.41896 12.22108 433 ft 0 kts 15°